GFSFLT1_con_mucape_000.txt.gz
CAPE
0 0 0 0 0 0 0 0 0 0 0 0 0 0 0 0 0 0 0 0 0 0 0 0 0 0 0 0 0 0 0 0
0 0 0 0 0 0 0 0 0 0 0 0 0 0 0 0 0 0 0 0 0 0 0 0 0 0 0 0 0 0 0 0
0 0 0 0 0 0 0 0 0 0 0 0 0 0 0 0 0 0 0 0 0 0 0 0 0 0 0 0 0 0 0 0
0 0 0 0 0 0 0 0 0 0 0 0 0 0 0 0 0 0 0 0 0 0 0 0 0 0 0 0 0 0 0 0
0 0 0 0 0 0 0 0 0 0 0 0 0 0 0 0 0 0 0 0 0 0 0 0 7 9 0 0 0 0 0 0
0 0 0 0 0 0 0 0 0 0 0 0 0 0 0 0 0 0 0 0 0 0 0 16 48 55 39 44 40 14 6 4
0 0 0 0 0 0 0 0 0 0 0 0 0 0 0 0 0 0 0 0 0 0 0 0 0 18 35 48 57 62 58 38
0 0 0 0 0 0 0 0 0 0 0 0 0 0 0 0 0 0 0 0 0 0 0 0 0 0 0 1 8 23 43 34
0 0 0 0 0 0 0 0 0 0 0 0 1 1 0 0 0 0 0 0 0 0 0 0 0 0 0 0 0 0 14 82
0 0 0 0 0 0 0 0 0 0 0 2 0 0 0 0 0 0 0 0 0 0 0 0 0 0 0 0 0 5 40 107
0 0 0 0 0 0 0 0 0 0 0 0 0 0 0 0 0 0 0 0 0 0 0 0 0 0 0 0 1 6 12 89
0 0 0 0 0 0 0 0 0 0 0 0 0 0 0 0 0 0 0 0 0 0 0 0 0 0 0 3 3 3 6 8
0 0 0 0 0 0 0 0 0 0 0 0 0 0 0 0 0 0 0 0 0 0 0 0 0 0 0 0 0 2 6 6
0 0 0 0 0 0 0 0 0 0 0 0 0 0 0 0 0 0 0 0 0 0 0 0 0 0 0 0 0 0 9 15
0 1 0 0 0 0 0 0 0 0 0 0 0 0 0 0 0 0 0 0 0 0 0 0 0 0 0 0 0 0 0 0
0 0 0 0 0 0 0 0 0 0 0 0 0 0 0 0 0 0 0 0 0 0 0 0 0 0 0 0 0 0 0 0
0 0 0 0 0 0 0 0 0 0 0 0 0 0 0 0 0 0 0 0 0 0 0 0 0 0 0 0 0 0 0 0
0 0 0 0 0 0 0 0 0 0 0 0 0 0 0 0 0 0 0 0 0 0 0 0 0 0 0 0 0 0 0 0
0 0 0 0 0 0 0 0 0 0 0 0 0 0 0 0 0 0 0 0 0 0 0 0 0 0 0 0 0 0 0 0

GFSFLT1_con_mucape_003.txt.gz
CAPE
0 0 0 0 0 0 0 0 0 0 0 0 0 0 0 0 0 0 0 0 0 0 0 0 0 0 0 0 0 0 0 0
0 0 0 0 0 0 0 0 0 0 0 0 0 0 0 0 0 0 0 0 0 0 0 0 0 0 0 0 0 0 0 0
0 0 0 0 0 0 0 0 0 0 0 0 0 0 0 0 0 0 0 0 0 0 0 0 0 0 0 0 0 0 0 0
0 0 0 0 0 0 0 0 0 0 0 0 0 0 0 0 0 0 0 0 0 0 0 0 0 2 1 6 0 0 0 2
0 0 0 0 0 0 0 0 0 0 0 0 0 0 0 0 0 0 0 0 6 14 7 4 7 7 17 39 21 33 53 0
0 0 0 0 0 0 0 0 0 0 0 0 0 0 0 0 0 0 0 0 0 0 0 5 11 11 38 91 111 125 78 88
0 0 0 0 0 0 0 0 0 0 0 0 0 0 0 0 0 0 0 0 0 0 0 0 0 0 0 62 101 92 118 108
0 0 0 0 0 0 0 0 0 0 0 0 0 0 0 0 0 0 0 0 0 0 0 0 0 0 0 0 8 32 24 32
0 0 0 0 0 0 0 0 0 0 0 0 0 0 0 0 0 0 0 0 0 0 0 0 0 0 0 0 0 8 18 26
8 5 0 0 0 0 0 0 0 0 0 0 0 0 0 0 0 0 0 0 0 0 0 0 0 0 0 0 0 16 42 67
7 7 7 3 0 0 7 0 0 0 0 0 0 0 0 0 0 0 0 0 0 0 0 0 0 0 0 0 1 1 36 55
1 1 5 10 13 0 0 0 0 0 0 0 0 0 0 0 0 0 0 0 0 0 0 0 0 0 0 0 0 8 45 53
9 4 13 11 13 0 0 0 0 0 0 0 0 0 0 0 0 0 0 0 0 0 0 0 0 0 0 0 0 1 6 13
2 0 27 19 0 0 0 0 0 0 0 0 0 0 0 0 0 0 0 0 0 0 0 0 0 0 0 0 0 3 15 24
5 24 18 6 0 0 0 0 0 0 0 0 0 0 0 0 0 0 0 0 0 0 0 0 0 0 0 0 1 9 23 32
21 0 0 2 0 0 0 0 0 0 0 0 0 0 0 0 0 0 0 0 0 0 0 0 0 0 0 0 0 0 0 0
8 0 0 0 0 0 0 0 0 0 0 0 0 0 0 0 0 0 0 0 0 0 0 0 0 0 0 0 0 0 0 0
0 0 0 0 0 0 0 0 0 0 0 0 0 0 0 0 0 0 0 0 0 0 0 0 0 0 0 0 0 0 0 0
0 0 0 0 0 1 0 0 0 0 0 0 0 0 0 0 0 0 0 0 0 0 0 0 0 0 0 0 0 0 0 0

GFSFLT1_con_mucape_009.txt.gz
CAPE
0 0 0 0 0 0 0 0 0 0 0 0 0 0 0 0 0 0 0 0 0 0 0 0 0 0 0 0 0 0 0 0
0 0 0 0 0 0 0 0 0 0 0 0 0 0 0 0 0 0 0 0 0 0 0 0 0 0 0 0 0 0 0 0
0 0 0 0 0 0 0 0 0 0 0 0 0 0 0 0 0 0 0 0 0 0 0 0 0 0 0 0 0 0 0 0
0 0 0 0 0 0 0 0 0 0 0 0 0 0 0 0 0 0 0 0 0 0 0 0 0 0 0 0 0 0 0 0
0 0 0 0 0 0 0 0 0 0 0 0 0 0 0 0 0 0 0 0 0 0 0 1 2 0 0 0 0 0 0 0
0 0 0 0 0 0 0 0 0 0 0 0 0 0 0 0 0 0 0 0 0 0 0 5 8 5 1 0 0 0 0 0
0 0 0 0 0 0 0 0 0 0 0 0 0 0 0 0 0 0 0 0 0 0 0 0 0 0 0 0 5 0 0 0
0 0 0 0 0 0 0 0 0 0 0 0 0 1 1 0 0 1 1 0 0 0 0 0 0 0 0 0 0 0 0 0
0 0 0 0 0 0 0 0 0 0 0 0 0 0 0 2 8 9 2 6 2 0 0 0 0 0 0 0 0 0 0 0
0 0 0 0 0 0 0 0 0 0 0 0 0 0 0 0 0 2 14 16 11 7 4 0 0 0 0 0 0 0 0 0
0 0 0 0 0 0 0 0 0 0 0 0 0 0 0 0 0 15 18 7 2 0 0 0 0 0 0 0 0 0 0 0
0 0 0 0 1 0 0 0 0 0 0 0 0 0 0 0 0 0 1 0 0 0 0 0 0 0 0 0 0 0 0 0
0 1 13 13 3 0 0 0 0 0 0 0 0 0 0 0 0 0 0 0 0 0 0 0 0 0 0 0 0 0 0 0
22 19 7 0 0 0 0 0 0 0 0 0 0 0 0 0 0 0 0 0 0 0 0 0 0 0 0 0 0 0 0 0
1 1 0 0 0 0 0 0 0 0 0 0 0 0 0 0 0 0 0 0 0 0 0 0 0 0 0 0 0 0 0 0
0 0 0 0 0 0 0 0 0 1 2 4 0 0 0 0 0 0 0 0 0 0 0 0 0 0 0 0 0 0 0 0
0 0 0 0 0 0 0 10 7 17 9 6 0 0 0 0 0 0 0 0 0 0 0 0 0 0 0 0 0 0 0 0
0 0 0 0 0 7 12 5 4 0 11 1 0 0 0 0 0 0 0 0 0 0 0 0 0 0 0 0 0 0 0 0
0 0 0 0 1 9 4 0 0 3 0 0 0 0 0 0 0 0 0 0 0 0 0 0 0 0 0 0 0 0 0 0

GFSFLT1_con_mucape_015.txt.gz
CAPE
0 0 0 0 0 0 0 0 0 0 0 0 0 0 0 0 0 0 0 0 0 0 0 0 0 0 0 0 0 0 0 0
0 0 0 0 0 0 0 0 0 0 0 0 0 0 0 0 0 0 0 0 0 0 0 0 0 0 0 0 0 0 0 0
0 0 0 0 0 0 0 0 0 0 0 0 0 0 0 0 0 0 0 0 0 0 0 0 0 0 0 0 0 0 0 0
0 0 0 0 0 0 0 0 0 0 0 0 0 0 0 0 0 0 0 0 0 0 0 0 0 0 0 0 0 0 0 0
0 0 0 0 0 0 0 0 0 0 0 0 0 0 0 0 0 0 0 0 0 0 0 0 1 10 8 0 0 0 0 0
0 0 0 0 0 0 0 0 0 0 0 0 0 0 0 0 0 0 0 0 0 0 0 2 14 11 0 0 0 0 0 0
0 0 0 0 0 0 0 0 0 0 0 0 0 0 0 0 0 0 0 0 0 0 0 0 14 14 5 0 0 0 0 2
0 0 0 0 0 0 0 0 0 1 1 6 3 0 0 0 0 0 0 0 0 0 0 0 7 23 23 44 0 0 0 0
0 0 0 0 0 0 0 0 0 1 0 0 0 0 0 0 0 0 0 0 0 0 0 0 26 22 58 3 0 8 0 0
0 0 0 0 0 0 0 0 0 0 0 0 0 0 0 0 0 0 0 0 0 0 0 1 14 17 20 1 0 0 0 0
0 0 0 0 0 0 0 0 0 0 0 0 0 0 0 0 0 0 0 0 0 0 8 13 23 4 13 0 0 0 0 0
0 0 0 0 0 0 0 0 0 0 0 0 0 0 0 0 0 0 0 0 0 6 7 6 4 0 0 0 0 0 0 0
0 0 6 0 0 3 0 0 0 0 0 0 0 0 0 0 0 0 0 0 0 0 0 0 0 0 0 0 0 0 0 0
18 12 17 9 0 0 0 0 0 0 0 0 0 0 0 0 0 0 0 0 0 0 0 0 0 0 0 0 0 0 0 0
9 9 0 0 0 0 0 0 0 0 0 0 0 0 0 0 0 0 0 0 0 0 0 0 0 0 0 0 0 0 0 0
0 0 0 0 0 0 0 0 0 0 0 0 0 0 4 4 0 0 0 0 0 0 0 0 0 0 0 0 0 0 0 0
0 0 0 0 0 0 0 0 0 0 0 0 0 0 7 6 0 0 0 0 0 0 0 0 0 0 0 0 0 0 0 0
0 0 3 0 11 0 0 2 3 5 1 0 0 0 0 0 0 0 0 0 0 0 0 0 0 0 0 0 0 0 0 0
4 1 0 18 31 10 5 5 3 2 0 0 0 0 0 0 0 0 0 0 0 0 0 0 0 0 0 0 0 0 0 0

GFSFLT1_con_mucape_018.txt.gz
CAPE
0 0 0 0 0 0 0 0 0 0 0 0 0 0 0 0 0 0 0 0 0 0 0 0 0 0 0 0 0 0 0 0
0 0 0 0 0 0 0 0 0 0 0 0 0 0 0 0 0 0 0 0 0 0 0 0 0 0 0 0 0 0 0 0
0 0 0 0 0 0 0 0 0 0 0 0 0 0 0 0 0 0 0 0 0 0 0 0 0 0 0 0 0 0 0 0
0 0 0 0 0 0 0 0 0 0 0 0 0 0 0 0 0 0 0 0 0 0 0 0 0 0 0 0 0 0 0 0
0 0 0 0 0 0 0 0 0 0 0 0 0 0 0 0 0 0 0 0 0 0 0 0 0 0 0 0 11 4 3 0
0 0 0 0 0 0 0 0 0 0 0 0 0 0 0 0 0 0 0 0 0 0 0 0 0 0 0 7 15 15 8 8
0 0 0 0 0 0 0 0 0 0 1 4 8 0 0 0 0 0 0 0 0 0 0 0 0 0 0 0 16 13 12 1
0 0 0 0 5 13 4 2 6 3 7 18 15 0 0 0 0 0 0 0 0 0 0 0 0 0 0 0 0 6 15 8
0 0 0 7 17 5 0 1 1 0 0 0 0 0 0 0 0 0 0 0 0 0 0 0 0 0 0 2 5 39 11 11
0 0 0 5 0 0 0 0 0 0 0 0 0 0 0 0 0 0 0 0 0 0 0 0 0 0 6 10 11 19 22 0
0 0 0 2 3 1 0 0 0 0 0 0 0 0 0 0 0 0 0 0 0 0 0 2 2 1 0 0 4 8 0 0
0 0 0 0 0 0 0 0 0 0 0 0 0 0 0 0 0 0 0 0 0 0 0 1 0 0 0 0 0 0 0 0
0 0 0 0 0 0 0 0 0 0 0 0 0 0 0 0 0 0 0 0 0 0 0 0 0 0 0 0 0 0 0 0
8 11 4 0 0 0 0 0 0 0 0 0 0 0 0 0 0 0 0 0 0 0 0 0 0 0 0 0 0 0 0 0
0 0 0 0 0 0 0 0 0 0 0 1 0 0 0 4 0 3 0 2 2 0 0 0 0 0 0 0 0 0 0 0
0 0 0 0 5 2 1 0 0 1 2 0 0 0 0 0 0 0 0 0 0 0 0 0 0 0 0 0 0 0 0 0
0 0 0 0 0 0 0 0 0 2 1 0 0 0 0 0 0 0 0 0 0 0 10 1 0 0 0 0 0 0 0 0
0 0 0 0 0 0 1 1 0 0 0 9 4 0 0 0 0 0 0 0 0 0 0 0 0 0 0 0 0 0 0 0
0 0 0 0 0 0 0 0 0 0 0 0 0 0 0 0 0 0 0 0 0 0 0 0 0 0 0 0 0 0 0 0

GFSFLT1_con_mucape_021.txt.gz
CAPE
15 0 0 0 2 8 78 0 0 0 0 0 0 0 0 0 0 0 0 0 0 0 0 0 0 0 0 0 0 0 0 0
0 0 0 0 0 0 0 0 0 0 0 0 0 0 0 0 0 0 0 0 0 0 0 0 0 0 0 0 0 0 0 0
0 0 0 0 0 0 0 0 0 0 0 0 0 0 0 0 3 0 0 0 0 0 0 0 0 0 0 0 0 0 0 0
0 0 0 0 0 0 0 0 0 0 0 0 0 0 2 3 0 0 0 0 0 0 0 0 0 0 0 0 0 0 0 0
0 0 0 0 0 0 0 0 0 0 0 0 0 0 0 0 0 0 0 0 0 0 0 0 0 0 0 0 0 0 0 1
0 0 0 0 0 0 0 0 0 0 0 0 0 0 0 1 1 0 0 0 0 0 0 0 0 0 0 0 0 0 0 9
0 0 0 0 0 0 0 1 4 0 1 1 0 0 2 0 0 0 0 0 0 0 0 0 0 0 0 0 0 0 0 0
1 0 0 0 1 8 12 11 11 16 26 14 1 0 0 0 0 0 0 0 0 0 0 0 0 0 0 0 0 0 0 0
0 0 0 0 1 9 13 40 33 12 7 0 0 0 0 0 0 0 0 0 0 0 0 0 0 0 0 0 0 1 7 10
0 0 0 0 8 21 17 8 2 0 0 0 0 0 0 0 0 0 0 0 0 0 0 0 0 0 0 0 0 1 3 0
0 0 0 3 5 2 0 0 0 0 0 0 0 0 0 0 0 0 0 0 0 0 0 0 0 0 0 0 0 0 0 0
0 0 2 3 0 0 0 0 0 0 0 0 0 0 0 0 0 0 0 0 0 0 0 0 1 0 0 0 0 0 0 0
0 0 0 0 0 0 0 0 0 0 0 0 0 0 0 0 0 0 0 0 0 0 0 1 2 0 0 0 0 0 0 0
0 0 0 0 0 0 0 0 0 0 0 0 0 0 0 0 0 0 0 0 0 1 0 0 0 0 0 0 0 0 0 0
0 0 0 0 0 0 0 0 0 0 0 0 0 0 0 0 0 0 0 0 0 0 0 0 0 0 0 0 0 0 0 0
0 0 0 0 0 0 0 0 0 0 0 0 0 5 0 0 0 0 0 0 0 0 0 0 3 0 0 0 0 0 0 0
0 0 0 0 0 0 0 0 0 0 0 4 11 16 6 1 0 0 8 58 9 0 0 0 0 0 0 0 0 0 0 0
0 0 0 0 0 0 0 0 0 0 0 11 0 0 0 0 0 0 0 0 0 0 0 0 0 0 0 0 0 0 0 0
0 0 0 0 0 0 0 0 0 0 0 0 0 0 0 0 0 0 0 0 0 0 0 0 0 0 0 0 0 0 0 0

GFSFLT1_con_mucape_024.txt.gz
CAPE
173 2 0 0 23 134 278 415 223 61 39 9 2 9 3 0 0 0 0 0 0 4 2 17 47 57 37 42 69 42 0 0
0 0 0 0 0 0 21 38 16 0 0 0 0 0 0 0 0 0 0 0 0 0 0 0 14 32 54 57 49 81 77 13
0 0 0 0 0 0 0 0 0 0 0 0 0 0 0 0 0 1 0 0 0 0 0 0 0 0 8 23 69 74 52 23
0 0 0 0 0 0 0 0 0 0 0 0 0 0 0 0 0 0 0 0 1 0 0 0 0 0 0 0 5 25 43 48
0 0 0 0 0 0 0 0 0 0 0 0 0 0 2 0 0 0 1 0 0 0 0 0 0 0 0 0 2 11 38 30
0 0 0 0 0 0 0 0 0 0 0 0 0 0 0 10 0 0 0 0 0 0 0 0 0 0 0 1 8 21 28 46
0 0 0 0 0 0 0 0 0 0 0 0 1 0 0 0 0 0 0 0 0 0 0 0 0 0 0 2 7 11 14 14
0 0 0 0 0 0 0 0 1 1 13 13 0 0 0 0 0 0 0 0 0 0 0 3 5 9 10 6 0 0 0 0
0 0 0 0 0 0 0 8 10 13 4 0 0 0 0 0 0 0 0 0 0 3 9 15 15 12 0 0 0 0 0 0
0 0 0 0 0 0 0 0 0 0 0 0 0 0 0 0 0 0 0 0 0 8 15 16 27 0 0 0 0 0 0 0
0 0 0 0 0 0 0 0 0 8 10 11 0 0 4 2 0 0 0 4 17 14 11 0 2 0 0 0 0 0 0 0
0 0 1 3 4 5 0 0 9 18 22 14 13 18 5 1 0 3 14 22 7 1 0 1 0 0 0 0 0 0 0 0
4 2 3 0 0 0 0 0 0 0 0 5 10 19 12 4 7 8 17 12 0 0 1 0 0 0 0 0 0 0 0 0
0 2 0 0 0 0 0 0 0 0 0 1 7 19 17 25 24 1 0 0 9 9 41 44 0 0 0 0 0 0 0 1
7 1 0 0 0 0 0 0 0 0 2 9 19 18 14 9 28 0 41 46 40 40 54 54 61 0 0 0 0 0 2 1
0 0 0 0 0 0 0 0 0 4 10 10 14 47 18 14 9 6 11 54 48 46 35 11 1 1 0 0 0 0 0 0
0 0 0 0 0 0 0 1 6 11 13 14 11 21 27 35 46 29 0 0 0 0 0 3 3 2 0 0 0 0 0 0
0 0 0 0 0 0 0 2 8 17 17 16 13 0 0 0 0 0 0 0 0 1 3 7 8 9 0 0 0 0 0 0
2 0 0 0 0 0 0 0 4 14 10 18 0 0 0 0 0 0 0 0 2 5 6 7 5 0 0 0 0 0 0 0

GFSFLT1_con_mucape_027.txt.gz
CAPE
252 436 53 47 119 307 541 781 1025 699 281 100 31 24 20 2 2 0 0 0 0 0 7 51 81 60 157 219 346 201 231 240
0 4 0 0 0 20 281 491 338 149 104 44 11 3 0 0 0 0 0 0 0 1 1 1 42 38 139 260 277 287 294 354
0 0 0 0 0 0 0 0 3 0 0 0 0 0 0 0 3 0 0 0 0 0 0 0 0 0 20 88 206 212 274 358
0 0 0 0 0 0 0 0 0 0 0 0 0 0 0 2 0 2 0 0 3 0 0 0 0 0 0 55 87 135 148 155
0 0 0 0 0 0 0 0 0 0 0 0 0 3 5 8 5 2 0 0 0 0 0 0 0 0 5 12 21 137 175 111
0 0 0 0 0 0 0 0 0 0 0 0 0 0 0 0 1 0 0 0 0 0 0 0 0 0 8 12 22 29 26 50
0 0 0 0 0 0 0 0 0 0 0 0 0 0 0 6 3 0 0 0 0 0 0 0 1 4 22 29 31 14 8 10
0 0 0 0 0 0 0 0 0 0 0 0 0 0 0 0 0 0 0 0 0 0 0 4 15 27 27 16 24 8 0 0
0 0 0 0 3 8 1 0 0 0 0 0 0 2 3 4 8 0 0 0 1 2 13 22 33 5 8 6 7 9 0 0
0 0 0 0 0 0 0 0 0 0 0 7 12 15 14 18 17 12 3 2 2 17 1 4 5 10 9 11 3 0 0 0
3 2 1 0 0 0 1 0 0 10 15 9 6 5 7 7 9 7 10 22 14 7 11 15 8 4 5 0 0 0 0 0
12 13 15 16 14 14 0 0 0 0 0 0 0 1 4 14 13 23 36 25 7 18 20 3 0 14 0 20 26 0 0 0
13 24 22 9 4 0 0 0 0 0 0 0 0 5 11 17 15 6 23 23 33 30 23 31 30 37 24 2 31 0 0 0
23 10 6 5 0 0 0 0 0 0 0 0 1 5 12 12 18 31 26 25 33 45 45 50 38 28 24 31 26 32 18 20
11 11 8 0 0 0 0 0 0 0 0 1 4 11 30 26 32 1 27 32 28 49 46 31 30 20 19 29 21 6 4 4
7 5 0 0 0 0 0 0 0 2 3 6 9 3 25 40 37 29 40 42 16 13 18 16 20 22 12 0 0 0 0 0
0 0 0 4 0 0 0 0 0 3 7 11 11 6 10 17 28 30 20 25 32 21 15 19 29 23 1 0 0 0 0 0
0 0 4 1 0 0 0 0 0 3 10 11 11 14 21 28 30 32 36 33 19 17 23 27 31 30 2 0 0 0 0 0
0 0 0 0 0 0 0 0 0 3 11 20 20 24 25 0 0 17 23 15 16 19 23 23 28 23 0 0 0 0 0 0

GFSFLT1_con_mucape_030.txt.gz
CAPE
163 127 172 76 294 459 582 778 1295 1153 595 231 97 60 56 71 31 2 0 0 8 9 0 13 73 31 25 41 75 95 100 99
117 243 233 53 127 185 255 469 425 369 198 76 36 7 3 0 0 5 3 16 0 0 0 0 0 0 0 0 0 0 0 73
92 223 197 46 0 0 0 53 72 14 0 0 0 0 0 4 16 0 7 5 0 0 0 0 0 0 0 0 0 0 0 7
0 0 0 0 0 0 0 0 0 0 0 0 0 0 5 2 5 3 0 0 0 0 0 0 0 0 0 0 0 0 1 0
0 0 0 0 0 0 0 0 0 0 0 0 0 0 0 0 0 0 0 0 0 0 0 0 0 0 0 0 0 3 7 0
0 0 0 0 0 0 0 0 0 0 0 0 0 0 0 0 0 0 0 0 0 0 0 0 0 0 0 8 1 0 3 16
0 0 0 0 0 0 0 0 0 1 0 0 0 0 0 0 0 0 0 0 0 0 0 0 0 0 0 0 4 3 5 1
0 0 0 0 3 6 0 0 0 0 0 0 0 0 0 0 0 0 0 0 0 0 0 0 0 1 3 9 8 9 9 6
0 0 2 1 1 0 0 0 0 0 0 0 2 0 0 0 6 2 1 0 0 0 0 1 1 9 18 21 1 1 0 0
0 6 7 0 0 0 0 0 0 0 0 0 0 0 0 2 8 1 0 0 0 0 0 0 0 7 10 4 4 0 0 0
11 4 2 0 2 0 7 0 0 0 0 0 0 0 0 0 1 1 0 0 0 1 6 4 4 1 0 0 4 4 14 5
0 0 0 0 0 3 11 4 0 0 0 0 0 0 0 0 0 0 0 0 1 7 19 1 7 21 17 15 20 17 24 28
0 5 6 14 15 19 12 3 0 0 0 0 0 0 0 0 0 0 0 8 14 24 21 24 27 17 19 16 15 20 30 19
10 6 11 6 10 9 2 0 0 0 0 0 0 1 0 0 0 4 0 2 13 8 24 20 28 31 16 0 5 13 1 0
0 3 4 2 1 0 0 0 0 0 0 0 0 1 0 0 5 7 4 1 22 26 24 14 8 0 1 2 1 0 0 0
2 5 4 1 1 0 0 0 0 0 0 0 0 0 0 0 22 26 19 18 18 18 16 3 5 8 6 3 0 0 0 0
0 0 0 0 0 0 0 0 0 0 0 11 10 1 0 7 18 18 33 28 26 11 0 6 15 12 4 0 0 0 0 0
0 0 0 0 1 0 0 0 0 0 0 13 26 1 0 1 10 23 13 0 1 0 3 11 5 1 0 0 0 0 0 0
0 0 0 16 5 0 3 12 3 0 0 0 11 1 0 0 21 16 6 0 0 1 6 1 0 0 0 0 0 0 0 0

GFSFLT1_con_mucape_033.txt.gz
CAPE
46 60 101 160 244 354 406 724 685 607 332 136 71 35 18 4 0 0 0 0 0 0 0 0 0 0 0 0 0 0 0 0
34 63 152 166 183 214 290 415 245 163 68 73 62 34 18 8 2 12 22 6 0 0 0 0 0 0 0 0 0 0 0 0
254 234 208 192 111 59 41 78 165 102 24 22 41 45 15 11 5 1 1 0 0 0 0 0 0 0 0 0 0 0 0 0
54 112 57 50 47 1 0 0 0 0 0 0 0 0 0 0 0 0 0 0 0 0 0 0 0 0 0 0 0 0 0 0
0 0 6 0 0 0 0 0 0 0 0 0 0 0 0 0 0 0 0 0 0 0 0 0 0 0 0 0 0 0 8 8
0 0 0 0 0 0 0 0 0 0 0 0 0 0 0 0 0 0 0 0 0 0 0 0 0 0 0 0 4 7 4 5
0 0 0 0 0 0 0 0 0 0 0 0 0 0 0 0 0 0 0 0 0 0 0 0 0 0 0 0 0 0 0 0
0 0 0 0 0 0 0 0 0 0 0 0 0 0 0 0 0 0 0 0 0 0 0 0 0 0 0 0 3 3 0 1
0 0 0 0 0 0 0 0 0 0 0 0 0 0 0 0 0 0 0 0 0 0 0 0 0 0 0 0 0 0 0 0
0 0 0 0 0 0 0 0 0 0 0 0 0 0 0 0 0 0 0 0 0 0 0 0 0 0 0 0 0 0 0 0
0 1 0 0 0 0 0 0 0 0 0 1 0 0 0 0 0 0 0 0 0 0 0 0 1 1 10 6 7 5 4 10
0 0 0 0 0 0 0 2 2 0 0 0 0 0 0 0 0 0 0 0 0 0 5 11 17 25 30 22 0 0 0 7
0 1 0 0 5 9 6 4 2 0 0 0 0 0 0 0 0 0 0 0 0 1 18 27 29 24 27 25 0 0 0 4
0 0 6 11 5 10 9 7 0 0 0 0 0 0 0 0 0 0 0 0 0 9 27 24 30 18 2 1 0 1 0 3
2 7 8 0 3 5 0 0 0 0 0 0 0 0 0 0 0 0 0 0 9 17 14 13 0 0 0 0 0 2 1 0
0 0 0 0 0 0 0 0 0 0 0 0 0 0 0 0 0 4 1 0 0 0 6 11 1 0 0 0 3 2 0 0
0 0 0 0 0 0 0 0 0 0 0 1 2 3 13 13 3 0 1 0 0 0 0 1 0 0 0 2 0 0 0 0
0 0 0 0 0 3 27 11 3 4 9 1 18 11 6 11 0 1 3 0 0 0 0 0 0 0 1 0 0 0 0 0
0 0 0 3 15 8 0 0 0 3 15 8 13 12 8 5 0 1 1 0 0 0 0 0 0 1 0 0 0 0 0 0

GFSFLT1_con_mucape_036.txt.gz
CAPE
60 66 77 204 322 597 822 527 531 521 228 131 124 122 60 39 24 3 5 11 11 3 0 8 1 0 0 0 0 0 0 0
109 56 113 209 374 404 249 266 217 215 106 126 90 74 42 46 38 27 8 13 16 30 45 1 0 0 0 0 0 0 0 0
70 109 123 195 111 67 48 22 16 0 0 0 15 16 25 56 39 29 41 27 13 10 5 1 5 9 0 0 0 0 0 0
107 113 98 72 25 9 7 0 0 0 0 0 0 0 0 0 0 0 0 0 0 0 2 0 0 0 0 0 0 0 0 0
2 12 32 42 36 0 0 0 0 0 0 0 0 0 0 0 0 0 0 0 0 0 0 0 0 0 0 0 0 0 0 0
0 0 0 0 0 0 0 0 0 0 0 0 0 0 0 0 0 0 0 0 0 0 0 0 0 0 0 0 0 0 0 0
0 0 0 0 0 0 0 0 0 0 0 0 0 0 0 0 0 0 0 0 0 0 0 0 0 0 0 0 0 0 0 0
0 0 0 0 0 0 0 0 0 0 0 0 0 0 0 0 0 0 0 0 0 0 0 0 0 0 0 0 0 0 0 0
0 0 0 0 0 0 0 0 0 0 0 0 0 0 0 0 0 0 0 0 0 0 0 0 0 0 0 0 0 0 0 0
8 1 1 0 1 0 0 0 0 0 0 0 0 0 0 0 0 0 0 0 0 0 0 0 0 2 3 6 3 0 5 0
2 7 8 1 0 1 0 1 1 3 2 6 3 0 4 0 0 0 0 0 0 0 0 0 2 12 18 18 8 3 1 6
6 0 0 10 27 11 6 7 2 5 16 3 0 0 0 0 0 0 0 0 0 0 0 0 0 0 1 5 0 1 0 0
5 5 8 1 0 4 4 0 9 1 0 0 0 0 0 0 0 0 0 0 0 1 0 0 0 0 0 0 0 0 0 1
0 1 1 5 11 0 0 0 0 0 0 0 0 0 0 0 0 0 0 0 0 0 0 0 0 0 0 0 0 0 2 6
2 2 0 0 0 0 0 0 0 0 0 0 0 0 0 0 1 0 16 11 5 0 0 0 0 1 1 0 0 0 0 0
3 3 2 0 0 0 0 0 0 0 0 0 0 1 1 7 4 4 27 10 5 0 1 0 0 0 0 0 0 0 0 0
0 0 0 0 0 0 0 0 0 2 1 2 22 2 5 9 14 22 21 7 0 0 0 0 2 0 0 0 0 0 0 0
0 0 0 0 0 0 0 0 0 2 1 0 0 0 0 15 25 15 19 1 3 4 3 3 0 0 0 0 0 0 0 0
0 0 0 0 0 0 0 0 0 0 0 0 0 0 3 15 8 0 0 0 0 2 0 0 0 0 0 0 0 0 0 0

GFSFLT1_con_mucape_039.txt.gz
CAPE
161 150 166 205 269 395 417 260 211 285 189 99 93 67 50 63 60 34 21 35 31 49 53 47 17 16 5 1 0 0 0 0
90 144 187 364 565 550 443 259 174 165 123 131 84 112 81 61 68 76 47 46 51 39 30 24 7 6 2 4 0 0 0 0
80 122 287 351 273 142 59 52 51 28 0 0 0 0 0 0 0 0 0 0 0 1 4 9 17 18 16 5 0 0 0 0
78 115 92 76 58 31 20 6 0 0 0 0 0 0 0 0 0 0 0 0 0 0 0 0 0 0 0 0 0 0 0 0
33 17 6 3 1 0 0 0 0 0 0 0 0 0 0 0 0 0 0 0 0 0 0 0 0 0 0 0 0 0 0 0
0 0 0 0 0 0 0 0 0 0 0 0 0 0 0 0 0 0 0 0 0 0 0 0 0 0 0 0 0 0 0 0
0 0 0 0 0 0 0 0 0 0 0 0 0 0 0 0 0 0 0 0 0 0 0 0 0 0 0 0 0 0 0 0
0 0 0 0 0 0 0 0 0 0 0 0 0 0 0 0 0 0 0 0 0 0 0 0 0 0 0 0 0 0 0 0
0 0 0 0 0 0 0 0 0 0 0 0 0 0 1 0 0 1 0 0 0 0 0 0 0 0 0 0 1 0 0 0
0 0 0 1 7 0 1 1 0 0 0 0 0 0 0 0 0 0 0 0 0 0 0 0 0 0 1 5 5 1 0 0
0 1 0 5 1 1 3 1 0 2 1 2 4 1 0 0 0 0 0 0 0 0 0 0 0 0 0 2 0 0 0 0
5 0 0 3 0 1 0 2 2 0 0 0 0 0 0 0 0 0 0 0 0 0 0 0 0 0 0 0 0 0 0 0
10 20 7 11 0 1 0 0 0 0 0 0 0 0 0 0 0 0 0 1 9 4 7 2 2 1 0 0 0 0 0 0
0 0 2 2 0 0 0 0 0 0 0 0 0 0 0 0 0 0 15 16 14 24 10 1 0 0 0 0 0 0 0 0
2 10 12 14 3 0 0 0 0 0 0 0 0 0 0 0 0 0 7 15 15 27 0 6 0 7 0 0 0 0 0 0
12 9 3 3 0 0 0 0 0 0 0 0 0 0 0 0 1 19 34 17 16 6 0 0 0 0 3 0 0 0 0 0
4 3 5 0 0 0 0 0 0 0 0 0 0 0 0 0 0 2 13 18 18 9 9 0 0 3 0 0 0 0 0 0
0 0 2 0 0 0 0 0 0 0 0 0 0 0 0 0 0 0 5 6 0 0 0 0 0 0 0 0 0 0 0 0
0 4 0 0 0 0 0 0 0 0 0 0 0 0 0 0 0 1 1 5 0 0 0 0 0 0 0 0 0 0 0 0

GFSFLT1_con_mucape_042.txt.gz
CAPE
143 117 139 162 199 232 320 258 133 28 93 65 63 69 46 45 50 51 30 36 42 49 55 42 15 7 7 6 4 7 1 0
260 243 217 195 174 298 308 285 203 160 91 35 23 51 38 3 0 0 0 0 0 0 0 0 0 0 0 0 0 0 0 0
164 202 312 333 371 262 68 26 22 0 0 0 0 0 0 0 0 0 0 0 0 0 0 0 0 0 0 0 0 0 0 0
114 163 151 57 15 15 2 0 0 0 0 0 0 0 0 0 0 0 0 0 0 0 0 0 0 0 0 0 0 0 0 0
5 1 0 0 0 0 0 0 0 0 0 0 0 0 0 0 0 0 0 0 0 0 0 0 0 0 0 0 0 0 0 0
0 0 0 0 0 0 0 0 0 0 0 0 0 0 0 0 0 0 0 0 0 0 0 0 0 0 0 0 0 0 0 0
0 0 0 0 0 0 0 0 0 0 0 0 0 0 0 0 0 0 0 0 0 0 0 0 0 0 0 0 0 0 0 0
0 0 0 0 13 0 0 0 0 0 0 0 0 0 0 0 0 0 0 0 0 0 0 0 0 0 0 0 0 0 0 0
2 6 24 0 0 0 0 0 0 0 0 0 0 0 0 0 0 0 0 0 0 0 0 0 0 0 0 0 0 0 0 0
0 0 0 0 0 0 2 3 3 0 1 0 0 0 0 0 0 0 0 0 0 0 0 0 0 0 0 0 0 0 1 1
0 0 2 0 2 5 2 0 1 1 0 0 0 0 0 0 0 0 0 0 0 0 0 1 2 5 10 1 0 0 0 0
17 7 10 0 2 13 2 0 3 0 0 0 0 0 0 0 0 0 0 0 0 6 22 13 8 8 1 0 0 0 0 0
21 22 21 16 18 26 1 0 0 0 0 0 0 0 0 0 0 0 0 0 19 38 33 29 15 7 4 0 0 0 0 0
10 15 19 17 22 2 0 0 0 0 0 0 0 0 0 0 0 0 0 4 27 49 33 14 22 10 0 0 0 0 0 0
4 5 10 9 4 4 0 0 0 0 0 0 0 0 0 0 0 0 0 0 6 30 30 21 23 3 0 0 0 0 0 0
1 8 11 13 6 6 1 0 0 0 0 0 0 0 0 0 0 0 0 0 3 13 14 8 4 1 0 0 0 0 0 0
9 12 8 6 0 0 0 0 0 0 0 0 0 0 0 0 0 0 0 0 0 0 0 0 0 0 0 0 0 0 0 0
10 8 0 0 0 0 0 0 0 0 0 0 0 0 0 0 0 0 0 0 0 0 0 0 0 0 0 0 0 0 0 0
12 9 0 0 0 0 0 0 0 0 0 0 0 0 0 0 0 0 0 0 0 0 0 0 0 0 0 0 0 0 0 0

GFSFLT1_con_mucape_045.txt.gz
CAPE
72 100 111 135 132 127 119 134 196 134 73 19 1 88 20 7 29 27 9 0 0 0 0 0 0 0 0 0 0 2 1 0
296 223 232 203 182 222 181 190 42 127 130 59 13 10 0 0 0 0 0 0 0 0 0 0 0 0 0 0 0 0 0 0
208 219 242 237 259 287 183 91 51 35 0 0 0 0 0 0 0 0 0 0 0 0 0 0 0 0 0 0 0 0 0 0
114 126 24 0 0 11 4 0 0 0 0 0 0 0 0 0 0 0 0 0 0 0 0 0 0 0 0 0 0 0 0 0
48 1 0 0 0 0 0 0 0 0 0 0 0 0 0 0 0 0 0 0 0 0 0 0 0 0 0 0 0 0 0 0
0 0 0 0 0 0 0 0 0 0 0 0 0 0 0 0 0 0 0 0 0 0 0 0 0 0 0 0 0 0 0 1
0 0 0 0 0 0 3 0 0 0 0 0 0 0 0 0 0 0 0 0 0 0 0 0 0 0 0 0 0 0 0 2
0 0 3 2 4 0 0 0 1 0 0 0 0 0 0 0 0 0 0 0 0 0 0 0 0 0 0 0 0 0 12 24
0 0 0 0 0 0 0 0 0 0 0 0 0 0 0 0 0 0 0 0 0 0 0 0 0 0 6 3 6 25 45 89
0 0 0 0 0 0 0 1 6 6 9 6 0 0 0 0 0 0 0 0 0 0 0 1 10 18 28 56 97 96 96 87
0 0 0 2 8 13 14 25 29 21 5 0 0 0 0 0 0 0 0 0 0 0 0 6 9 24 65 99 108 80 81 81
0 5 16 21 22 22 7 15 14 7 2 0 0 0 0 0 0 0 0 0 0 0 19 35 37 49 94 80 32 25 0 0
6 17 33 37 43 28 33 26 10 1 0 0 0 0 0 0 0 0 0 0 0 15 23 37 26 37 40 11 4 0 0 0
15 29 36 40 44 44 19 1 0 0 0 0 0 0 0 0 0 0 0 0 0 0 0 23 31 15 7 12 7 0 0 0
11 13 19 19 15 15 1 0 0 0 0 0 0 0 0 0 0 0 0 0 0 0 0 1 0 3 2 0 0 0 0 0
0 2 9 11 11 8 0 0 0 0 0 0 0 0 0 0 0 0 0 0 2 3 2 0 0 0 0 0 0 0 0 0
0 9 17 9 11 11 0 0 0 0 0 0 0 0 0 0 0 0 0 1 1 0 0 0 0 0 0 0 0 0 0 0
8 15 11 7 4 0 0 0 0 0 0 0 0 0 0 0 0 0 0 2 0 0 0 0 0 0 0 0 0 0 0 0
10 11 3 0 0 0 0 0 0 0 0 0 0 0 0 0 0 0 2 11 19 0 0 0 0 0 0 0 0 0 0 0

GFSFLT1_con_mucape_048.txt.gz
CAPE
127 295 359 360 538 642 619 477 96 172 77 11 0 3 37 23 16 0 0 0 0 0 0 0 0 0 0 0 0 0 0 0
353 475 559 608 644 586 665 306 174 53 0 0 7 0 0 0 0 0 0 0 0 0 0 0 0 0 0 0 0 0 0 0
393 611 709 764 725 687 654 499 285 440 190 22 0 0 0 0 0 0 0 0 0 0 0 0 0 0 0 0 0 0 0 0
410 519 767 829 859 763 601 597 545 135 0 0 0 0 0 0 0 0 0 0 0 0 0 0 0 0 0 0 0 0 0 0
133 52 5 33 97 69 29 67 29 1 0 0 0 0 11 0 0 0 0 0 0 0 0 0 0 0 0 0 0 0 1 0
0 0 0 0 0 0 0 0 0 0 0 0 0 0 0 0 0 0 0 0 0 0 0 0 0 0 0 2 3 12 11 23
0 0 0 0 0 0 0 0 0 0 0 0 0 0 0 0 0 0 0 0 0 0 0 0 5 24 32 41 45 46 62 69
0 0 0 0 0 0 0 0 0 0 0 0 0 0 0 0 0 0 0 0 0 4 18 41 53 69 81 67 82 66 65 73
0 0 0 0 0 0 0 0 0 0 0 5 0 0 0 0 0 0 0 0 7 9 28 58 78 75 68 65 78 78 81 97
0 0 0 0 0 0 0 8 9 5 8 9 14 16 5 0 0 0 3 7 13 25 47 72 87 68 75 78 85 94 85 101
0 0 0 0 0 4 6 15 12 15 3 5 6 0 0 0 0 0 0 0 1 7 18 31 50 61 59 78 76 77 90 104
0 0 0 4 11 14 15 19 3 1 5 1 0 0 0 0 0 0 0 0 0 0 0 7 23 44 57 79 95 68 55 51
0 5 7 7 11 20 29 32 26 20 0 0 0 0 0 0 0 0 0 0 0 0 0 6 22 55 71 56 40 46 15 2
3 8 13 18 29 34 34 17 22 1 0 0 0 0 0 0 0 0 0 0 0 0 8 22 34 46 46 25 12 0 0 0
2 3 10 24 22 14 10 3 0 0 0 0 0 0 0 0 0 0 0 2 5 10 18 22 4 3 3 1 0 0 0 0
0 0 9 10 8 11 3 0 0 0 0 0 0 0 0 0 0 0 4 11 14 16 14 14 13 11 3 12 17 5 0 0
0 0 3 6 17 7 0 0 0 0 0 0 0 0 0 0 0 1 7 17 27 34 26 22 25 0 0 0 0 0 0 3
0 0 7 15 11 8 0 0 0 0 0 0 0 0 0 0 0 5 16 25 22 23 19 27 19 0 0 0 0 0 0 0
0 4 11 14 11 0 0 0 0 0 0 0 0 0 0 0 5 12 15 17 19 11 7 0 0 0 0 0 0 0 0 0

GFSFLT1_con_mucape_051.txt.gz
CAPE
364 401 425 341 376 733 929 665 203 176 123 42 40 0 6 5 11 21 4 0 0 0 0 0 0 0 1 0 0 0 0 0
570 703 695 664 806 982 873 445 393 434 386 153 17 0 0 0 0 0 0 0 0 0 0 0 0 0 0 0 0 0 0 0
803 930 955 971 958 895 756 580 534 602 281 255 99 25 0 0 0 0 0 0 0 0 0 0 0 0 0 0 0 0 0 0
970 1027 890 756 726 780 872 694 599 326 45 11 22 2 0 0 1 0 0 0 0 0 0 0 0 0 0 0 0 0 0 0
775 830 929 919 685 461 199 153 117 7 0 0 0 2 21 53 24 7 1 0 0 0 0 0 1 3 6 12 9 20 22 10
153 129 138 95 106 50 36 13 0 0 0 1 2 14 15 15 5 0 0 0 8 5 1 3 11 14 22 32 47 50 42 42
0 0 0 0 0 0 0 0 0 0 0 0 0 3 3 0 0 0 0 0 0 1 3 12 23 39 50 52 86 73 79 77
0 0 0 0 0 0 0 0 0 0 0 0 0 0 13 13 0 0 0 0 0 0 0 5 9 24 43 72 98 83 75 79
0 0 0 0 0 0 0 5 4 0 0 0 0 1 5 0 0 0 0 0 0 2 6 10 18 34 101 70 94 98 70 111
0 0 0 0 2 5 1 9 0 0 1 2 5 7 2 0 0 0 0 0 0 0 0 4 6 10 22 83 107 75 96 90
3 5 3 18 16 12 14 2 1 6 11 1 3 5 0 0 0 0 0 0 0 0 0 0 0 2 14 42 99 80 77 105
14 15 15 20 13 2 6 7 11 11 1 1 3 0 0 0 0 0 0 0 0 0 0 0 0 5 17 47 81 64 45 70
19 6 0 0 5 10 11 10 14 6 4 13 13 0 0 0 0 0 0 0 0 0 0 1 6 13 24 31 34 47 30 14
0 0 0 0 3 7 9 13 17 19 10 0 0 0 0 0 0 0 0 0 0 0 3 10 17 24 15 9 10 17 15 17
0 0 0 0 1 3 10 17 17 19 1 0 0 0 0 0 0 0 0 0 1 6 13 18 2 6 17 17 10 5 14 20
0 0 0 0 0 1 13 15 10 0 0 0 0 0 0 0 0 0 0 2 8 18 24 22 15 16 15 6 20 22 0 30
0 0 0 0 0 5 6 11 2 0 0 0 0 0 0 0 0 0 2 8 18 31 15 18 25 17 2 0 0 0 0 0
0 0 0 0 0 4 13 12 13 8 0 0 0 0 0 0 0 0 6 18 24 15 20 19 33 48 0 0 0 0 0 11
0 0 0 0 1 18 21 19 6 6 0 0 0 0 0 0 0 1 13 20 24 13 26 31 7 7 0 0 0 0 10 15

GFSFLT1_con_mucape_054.txt.gz
CAPE
119 126 185 66 534 866 674 599 295 238 77 49 41 14 15 8 0 0 0 6 1 0 0 0 0 0 0 0 0 0 0 0
375 459 545 483 689 979 665 563 335 121 94 95 4 0 0 0 0 0 0 0 0 0 0 0 0 0 0 0 0 0 0 0
528 737 868 930 1163 827 563 455 233 221 325 303 52 0 0 0 0 0 0 0 0 0 0 0 0 0 0 0 0 0 0 0
800 999 1120 1184 867 820 665 543 399 497 307 25 4 0 0 0 0 0 0 0 0 0 0 0 0 0 0 0 0 0 0 0
989 1119 872 818 751 674 690 738 613 345 6 0 0 0 0 3 7 7 0 0 0 0 0 0 0 0 0 0 0 0 0 0
877 1010 882 894 863 852 520 172 44 0 1 5 0 47 33 23 14 32 3 0 0 0 0 0 0 0 5 17 30 17 3 7
453 543 451 282 461 368 261 4 0 0 0 0 7 10 0 0 1 1 1 4 0 0 0 3 1 0 0 10 13 9 4 4
91 46 7 7 2 4 0 0 0 0 0 0 0 0 0 0 4 7 1 0 0 0 0 0 0 0 0 8 32 51 24 14
1 0 0 0 0 0 0 0 0 0 0 0 0 0 0 6 12 7 0 0 0 0 0 0 0 0 0 1 20 41 57 28
0 0 3 0 0 0 0 3 4 0 0 0 1 3 11 19 18 8 0 0 0 0 0 0 0 0 0 1 5 42 41 13
0 0 4 8 5 5 2 9 4 0 0 6 12 17 13 4 11 0 0 0 0 0 0 0 0 0 0 0 1 23 17 25
15 3 10 18 5 5 0 1 0 6 13 12 24 15 0 1 0 0 0 0 0 0 0 0 0 0 0 7 13 8 12 2
31 34 8 13 4 1 0 2 12 13 18 27 23 12 8 0 0 0 0 0 0 0 0 0 0 6 1 0 0 0 0 0
36 38 6 2 0 0 0 7 7 8 18 7 13 1 0 0 0 0 0 0 0 0 0 0 6 0 0 0 0 2 0 4
37 1 0 0 0 0 0 8 4 13 17 28 3 0 0 0 0 0 0 0 0 0 0 11 3 0 0 0 1 8 2 0
0 0 0 0 0 0 0 0 0 13 47 10 10 0 0 0 0 0 0 0 0 1 11 3 0 0 7 2 3 0 0 0
0 0 0 0 0 0 0 0 10 14 24 18 9 7 0 0 0 0 0 0 0 6 7 0 0 0 16 8 4 0 0 0
0 0 1 0 0 0 0 1 11 25 17 12 5 0 0 0 0 0 0 0 2 14 1 0 0 4 2 12 13 1 0 0
0 0 0 0 0 0 0 12 12 15 14 2 0 0 0 0 0 0 0 1 1 2 0 0 2 10 0 2 3 0 0 0

GFSFLT1_con_mucape_057.txt.gz
CAPE
1 8 141 241 392 314 377 381 378 308 167 49 23 28 33 9 0 0 0 1 0 0 0 0 0 0 0 0 0 0 0 0
6 31 177 462 491 440 389 387 306 273 136 53 46 21 3 5 16 0 0 0 0 0 0 0 0 0 0 0 0 0 0 0
273 276 258 600 593 563 552 476 276 152 57 67 4 0 0 0 0 0 0 0 0 0 0 0 0 0 0 0 0 0 0 0
349 460 801 653 644 633 611 494 391 92 105 80 7 0 0 0 0 0 0 0 0 0 0 0 0 0 0 0 0 0 0 0
621 741 790 841 807 681 487 401 83 68 283 181 0 0 0 0 0 0 0 0 0 0 0 0 0 0 0 0 0 0 0 0
768 873 849 789 744 583 425 216 167 284 232 1 0 0 0 0 0 1 11 22 13 18 0 0 0 0 0 0 0 0 0 0
908 931 741 504 406 370 465 456 285 0 1 0 0 0 0 0 1 19 26 30 15 4 0 0 0 0 0 0 0 0 0 0
839 682 587 553 514 489 390 145 5 0 0 0 0 0 0 2 12 16 14 1 12 1 0 0 0 0 0 0 0 0 1 12
478 492 408 301 140 43 6 0 0 0 0 0 0 2 10 20 25 20 9 0 5 0 0 0 0 0 0 0 0 0 0 17
389 259 174 76 38 13 0 0 0 0 0 0 1 9 17 21 21 16 0 0 0 0 0 0 0 0 0 0 0 0 1 3
313 90 0 0 0 0 0 0 2 0 0 1 27 36 35 33 32 15 0 0 0 0 0 0 0 0 0 0 0 0 0 0
268 8 0 1 6 3 1 0 1 1 0 23 35 43 42 35 25 1 0 0 0 0 0 0 0 0 0 0 0 0 2 8
202 0 0 6 17 21 6 8 3 3 44 45 33 41 39 7 2 0 0 0 0 0 0 0 0 0 0 0 0 0 0 0
40 1 16 23 29 29 11 5 36 65 50 25 29 33 34 5 0 0 0 0 0 0 0 0 0 0 0 0 0 0 0 0
0 15 29 48 36 42 58 85 78 41 35 10 18 28 22 0 0 0 0 0 0 0 0 0 0 0 0 2 0 0 0 0
0 32 52 48 57 70 87 47 2 1 7 13 21 20 7 0 0 0 0 0 0 0 0 0 0 0 0 0 0 11 7 1
71 73 52 64 76 66 0 0 0 0 3 12 20 16 14 1 0 0 0 0 0 0 0 0 0 0 0 0 0 3 11 1
50 43 28 6 0 0 0 0 0 0 3 15 12 7 0 0 0 0 0 0 0 0 0 0 0 0 0 0 0 0 0 3
0 0 0 0 6 0 0 0 0 1 12 9 10 4 0 0 0 0 0 0 0 0 0 0 0 0 0 0 1 0 1 0

GFSFLT1_con_mucape_060.txt.gz
CAPE
44 252 152 19 75 46 281 411 413 294 243 226 155 79 32 15 0 4 0 0 0 0 0 1 0 0 0 0 0 0 0 0
100 162 59 115 253 162 331 430 504 294 236 158 79 35 44 12 1 0 0 0 0 0 0 0 0 0 0 0 0 0 0 0
63 59 170 201 294 337 394 509 538 386 318 150 73 79 18 0 0 0 0 0 0 0 0 0 0 0 0 0 0 0 0 0
2 61 291 283 345 393 389 465 428 407 334 152 72 2 0 0 0 0 0 0 0 0 0 0 0 0 0 0 0 0 0 0
282 275 410 397 421 452 471 489 468 374 241 92 0 0 0 0 0 0 0 0 0 0 0 0 0 0 0 0 0 0 0 0
494 512 495 566 598 615 638 526 391 270 74 143 28 0 0 0 0 0 0 0 0 4 0 0 0 0 0 0 0 0 0 0
594 732 773 801 779 792 587 457 215 81 273 213 4 0 0 0 0 0 10 22 33 19 1 0 0 0 0 0 0 0 0 0
703 760 806 816 706 524 386 219 178 252 255 21 0 0 0 0 1 17 32 20 12 31 1 0 0 0 0 0 0 0 0 0
802 894 796 596 512 321 311 380 214 0 0 6 5 0 4 8 14 21 33 30 7 3 9 0 0 0 0 0 0 0 0 0
976 998 778 480 402 441 570 424 57 2 7 20 23 21 22 36 44 23 20 0 1 4 0 0 0 0 0 0 0 0 0 0
852 690 566 318 170 65 18 10 15 20 25 11 11 17 30 17 16 22 0 4 3 0 0 0 0 0 0 0 0 0 0 0
590 588 456 307 156 37 8 8 10 8 0 4 25 20 8 0 0 13 5 0 2 0 0 0 0 0 0 0 0 0 0 0
340 338 369 116 5 0 0 0 2 10 19 31 32 50 16 0 33 20 5 17 0 0 0 0 0 0 0 0 0 0 0 0
321 366 286 10 0 0 5 18 33 35 51 62 72 47 75 38 17 34 0 0 0 0 0 0 0 0 0 0 0 0 2 0
377 356 223 0 0 16 48 56 70 66 57 58 69 46 16 22 28 15 4 0 0 0 0 0 0 0 0 0 0 2 0 0
372 238 70 37 35 51 56 59 68 81 68 8 0 9 17 23 24 4 2 0 0 0 0 0 0 0 0 0 3 1 0 0
355 76 32 44 43 63 78 47 33 1 0 0 9 11 0 1 1 8 0 0 0 0 0 0 0 0 0 0 2 0 0 0
134 78 83 61 71 54 56 15 0 0 0 4 17 8 0 0 0 0 0 0 0 0 0 0 0 0 0 0 0 0 0 0
71 57 53 43 39 37 32 22 35 15 16 32 33 2 0 0 0 0 0 0 0 0 0 0 0 0 0 0 0 0 0 0

GFSFLT1_con_mucape_063.txt.gz
CAPE
140 106 128 214 239 210 210 100 82 149 202 258 264 247 189 67 19 8 0 0 0 0 0 0 0 0 0 0 0 0 0 0
66 199 228 205 231 166 180 156 172 236 243 216 196 184 104 41 18 14 14 0 0 0 0 0 0 0 0 0 0 0 0 0
29 190 294 173 169 41 107 251 230 271 263 212 176 156 38 45 24 25 0 0 0 0 0 0 0 0 0 0 0 0 0 0
20 94 321 240 153 109 87 238 388 402 353 240 162 81 80 44 36 0 0 0 0 0 0 0 0 0 0 0 0 0 0 0
30 63 288 107 48 166 250 264 392 477 373 298 205 161 83 35 1 0 0 0 0 0 0 0 0 0 0 0 0 0 0 0
44 51 139 202 138 159 316 361 403 508 380 249 210 41 0 0 0 0 0 0 0 0 0 4 0 2 2 0 0 0 0 0
91 95 224 204 124 170 321 421 444 457 404 221 48 10 0 0 0 0 0 0 3 12 4 10 4 5 1 0 0 0 0 0
320 148 195 191 162 259 365 430 480 464 266 27 96 208 0 0 0 1 0 1 2 0 10 3 0 5 0 0 0 0 0 0
346 370 252 275 348 483 482 502 414 198 43 146 249 223 5 4 3 0 22 29 17 15 18 6 1 0 0 0 0 0 0 0
421 568 626 721 703 588 447 287 150 151 223 250 118 60 12 49 30 9 0 0 0 0 12 5 2 0 0 0 0 0 0 0
498 621 792 856 755 470 367 222 261 248 5 3 17 56 33 23 34 34 12 0 1 9 4 4 0 0 0 0 0 0 0 0
607 749 947 887 614 361 335 299 417 123 21 15 66 35 18 28 10 32 48 0 3 2 8 1 0 0 0 0 0 0 0 0
750 909 1035 721 414 456 493 549 256 14 14 12 0 0 1 19 33 2 20 25 4 5 2 0 0 0 0 0 0 0 0 0
939 1024 815 619 394 193 24 3 10 35 58 29 45 50 54 69 51 68 4 5 8 12 4 0 0 0 0 0 0 0 0 0
609 605 608 579 332 207 18 22 37 24 39 69 71 82 62 51 6 6 3 0 21 3 0 0 0 0 0 0 0 0 0 0
444 423 338 349 320 152 51 58 53 49 61 80 46 71 10 4 7 11 10 1 0 0 0 0 0 0 0 0 0 0 0 0
342 426 347 209 102 53 57 64 51 90 102 44 60 2 4 8 13 12 4 0 0 0 0 0 0 0 0 0 0 0 0 0
185 353 354 108 73 74 54 69 76 67 74 40 11 19 21 23 20 12 1 0 0 0 0 0 0 0 0 0 0 0 0 0
37 102 158 70 76 46 54 71 86 50 22 31 35 30 21 18 15 0 0 0 0 0 0 0 0 0 0 0 0 0 0 0

GFSFLT1_con_mucape_066.txt.gz
CAPE
113 142 131 65 36 77 129 252 249 22 9 50 189 293 297 283 238 50 16 12 12 0 0 0 0 0 0 0 0 0 0 0
195 144 131 147 109 196 253 357 370 44 54 139 238 242 281 199 110 51 51 47 2 0 0 0 0 0 0 0 0 0 0 0
210 208 169 152 195 253 245 179 147 51 81 158 207 214 190 135 67 50 62 38 0 0 0 0 0 0 0 0 0 0 0 0
138 130 194 207 132 267 287 175 43 64 119 179 188 167 130 85 64 82 78 3 0 0 0 0 0 0 0 0 0 0 0 0
101 0 89 275 181 234 243 180 69 83 167 233 276 144 67 58 94 72 3 0 0 0 0 0 0 0 0 0 0 0 0 0
138 34 44 187 254 204 215 126 67 119 176 259 177 121 98 107 34 4 0 0 0 0 2 0 4 3 6 1 0 0 0 0
149 75 42 60 219 266 190 106 140 147 227 236 177 166 84 4 0 0 0 0 2 12 12 3 11 12 12 8 0 0 0 0
116 74 48 81 117 241 57 143 163 202 211 321 198 120 17 0 0 0 0 1 11 21 2 5 8 1 15 4 0 0 0 0
113 72 98 149 82 56 144 233 248 263 249 317 220 127 47 30 0 0 1 1 14 13 8 1 0 9 14 10 1 0 0 0
151 111 183 260 200 110 214 280 260 296 416 403 183 60 131 58 0 1 4 4 8 14 5 0 0 5 15 1 0 0 0 0
105 253 248 311 327 306 421 444 460 480 473 263 109 110 85 99 27 1 15 17 14 0 0 0 3 9 2 0 0 0 0 0
170 254 326 361 371 463 615 508 438 326 122 191 170 95 76 92 42 30 53 37 23 18 2 0 1 0 2 0 0 0 0 0
274 346 418 481 575 647 589 446 212 117 203 194 73 22 30 43 18 25 0 22 0 1 1 0 0 0 0 0 0 0 0 0
435 501 528 527 767 729 463 346 188 208 223 119 41 34 52 34 20 0 9 20 1 12 9 2 0 0 0 0 0 0 0 0
570 650 700 763 942 771 386 354 304 277 296 87 29 26 54 56 59 37 5 10 15 20 14 0 0 0 0 0 0 0 0 0
322 685 850 916 881 529 379 238 227 177 80 54 24 13 36 51 50 22 10 18 20 13 1 0 0 0 0 0 0 0 0 0
230 347 583 721 628 346 131 117 98 62 64 46 36 69 70 50 39 26 10 8 6 0 0 0 0 0 0 0 0 0 0 0
19 141 289 369 321 266 181 99 67 59 65 62 68 50 42 46 23 13 10 11 0 0 0 0 0 0 0 0 0 0 0 0
9 51 97 140 149 91 31 35 44 51 93 72 46 49 44 22 2 0 3 0 0 0 0 0 0 0 0 0 0 0 0 0

GFSFLT1_con_mucape_069.txt.gz
CAPE
28 15 17 10 14 46 88 217 306 89 0 3 92 250 279 261 171 166 116 42 38 18 1 0 0 0 0 0 0 0 0 0
72 74 70 30 41 31 81 236 264 68 15 17 69 227 249 188 48 77 30 17 20 7 0 0 0 0 0 0 0 0 0 0
167 162 208 200 145 109 140 183 212 289 14 14 25 152 178 89 69 50 43 21 4 0 0 0 0 0 0 0 0 0 0 0
279 214 256 204 219 129 152 276 339 427 145 42 75 144 107 86 91 59 19 11 11 0 0 0 0 0 0 0 0 0 0 0
241 153 203 247 181 130 219 304 300 186 189 95 121 161 91 54 61 49 14 19 0 0 0 0 0 0 0 0 0 0 0 0
313 160 91 162 134 113 85 216 295 190 71 87 131 173 80 99 63 21 4 4 0 0 0 1 7 3 12 5 2 0 1 0
407 319 113 54 24 179 169 143 226 254 125 65 102 175 75 79 58 13 3 0 0 0 0 2 11 4 5 0 0 1 0 0
369 389 283 70 24 56 224 219 216 214 131 85 171 112 150 77 58 4 0 0 0 0 1 15 20 30 0 1 0 7 0 0
269 338 372 171 89 53 72 219 266 127 153 105 205 232 226 69 0 0 0 0 0 0 2 21 7 11 0 0 0 0 0 0
100 274 349 249 143 105 115 130 265 292 260 288 284 272 281 87 53 7 1 9 0 8 15 17 2 0 0 0 0 0 0 0
0 60 321 275 226 250 231 190 266 420 367 363 369 328 236 96 101 37 25 24 15 31 20 3 0 0 0 0 0 0 0 0
17 184 197 280 343 369 256 315 432 371 432 505 402 379 208 105 137 53 53 50 28 0 1 0 0 0 0 0 0 0 0 0
153 324 414 386 400 309 230 331 484 508 540 528 464 322 162 131 74 70 91 35 2 4 3 0 0 6 1 0 0 0 0 0
239 306 391 386 367 405 249 435 593 490 449 420 212 222 128 45 55 17 12 19 4 0 0 3 7 0 0 0 0 0 0 0
227 370 412 488 514 479 563 718 561 427 268 169 91 113 67 46 23 10 17 21 0 0 0 0 0 0 0 0 0 0 0 0
24 240 473 574 627 566 706 527 505 268 131 98 87 68 57 1 0 17 6 0 0 0 1 0 0 0 0 0 0 0 0 0
0 26 257 545 670 639 405 284 177 202 55 24 26 59 0 6 5 9 5 0 0 0 0 0 0 0 0 0 0 0 0 0
0 5 96 260 498 471 371 208 100 48 32 19 13 8 11 10 13 3 0 2 0 0 0 0 0 0 0 0 0 0 0 0
0 0 43 98 147 128 120 78 24 9 0 7 14 18 25 26 7 0 0 0 0 0 0 0 0 0 0 0 0 0 0 0

GFSFLT1_con_mucape_072.txt.gz
CAPE
141 184 272 197 1 9 23 267 437 515 393 286 382 516 572 508 580 548 219 102 32 22 2 0 0 0 0 0 0 0 0 0
162 204 154 137 98 108 284 485 677 636 353 137 230 422 389 446 403 261 65 67 19 3 1 0 0 0 0 0 0 0 0 0
199 187 224 192 186 240 348 469 621 592 200 142 378 564 307 421 362 55 57 19 9 2 0 0 0 0 0 0 0 0 0 0
226 220 229 229 200 240 293 456 541 592 452 214 398 468 248 266 161 48 66 45 5 0 0 0 0 0 0 0 0 0 0 0
424 276 310 389 388 299 290 375 548 668 618 378 264 284 350 234 55 55 56 24 3 1 0 0 0 0 0 0 0 0 9 0
426 460 420 380 446 544 676 632 742 756 697 546 479 456 386 49 39 37 58 25 1 10 0 0 0 0 0 5 1 1 0 0
966 616 447 476 840 795 689 613 595 563 499 553 541 509 107 93 74 47 49 1 0 10 0 0 0 0 10 7 9 0 3 0
1186 1050 858 529 628 776 702 689 619 635 536 497 379 325 114 91 83 104 45 23 17 3 0 0 2 7 13 5 0 0 0 0
950 1148 1123 735 621 669 710 752 719 647 590 458 352 327 280 146 107 85 43 30 3 0 0 0 0 5 4 3 0 0 0 0
472 837 1140 973 790 753 736 664 704 598 455 490 447 303 211 256 173 100 16 0 0 0 0 1 4 7 1 0 0 0 0 0
268 438 779 934 1012 915 805 745 702 658 587 415 335 326 329 275 305 88 5 0 1 13 37 15 13 0 8 0 0 0 0 0
185 294 445 696 913 946 871 820 758 865 650 398 509 472 351 441 325 105 62 43 36 49 32 2 0 0 0 0 0 0 0 0
491 524 590 658 899 943 887 917 924 835 639 497 380 376 259 354 124 81 89 76 4 33 18 32 13 0 0 0 0 0 0 0
731 799 899 820 829 896 930 929 769 487 394 299 295 185 97 86 61 68 64 0 0 21 26 0 0 0 0 0 0 0 0 0
569 943 1067 1078 998 976 799 722 313 245 359 162 140 61 0 1 57 18 10 8 0 1 2 0 0 0 0 0 0 0 0 0
66 667 1115 1125 993 849 542 436 261 422 326 102 67 45 41 75 51 10 3 0 0 0 0 0 0 0 0 0 0 0 0 0
0 236 797 606 449 526 544 516 518 368 231 173 61 30 49 92 37 11 0 3 0 0 0 0 0 0 0 0 0 0 0 0
0 120 300 230 473 593 494 500 433 270 164 64 28 11 6 4 2 0 0 3 0 0 0 0 0 0 0 0 0 0 0 0
0 0 12 150 372 497 392 315 186 101 56 31 12 8 0 13 9 0 1 0 0 0 0 0 0 0 0 0 0 0 0 0

GFSFLT1_con_mucape_075.txt.gz
CAPE
67 51 18 94 92 62 75 137 194 270 408 356 319 364 576 677 788 711 597 512 361 268 98 0 0 0 0 0 0 0 0 0
144 85 68 54 71 31 26 147 213 457 491 305 199 232 485 655 611 649 616 431 310 231 45 3 0 0 0 0 0 0 0 0
128 163 165 72 21 1 19 200 407 526 398 169 75 224 568 713 665 516 329 43 45 175 37 0 0 0 0 0 0 0 0 0
160 230 252 198 72 76 122 313 525 716 383 73 132 550 417 477 497 366 182 67 84 57 0 0 0 0 0 0 0 0 2 0
196 260 275 269 270 308 366 505 640 742 956 238 313 583 521 508 528 232 30 54 24 44 3 0 0 0 0 0 0 0 0 0
302 283 266 328 392 385 426 522 591 740 827 781 495 479 449 554 449 94 64 53 49 15 2 0 0 0 0 0 0 5 3 0
429 432 319 331 1025 1010 987 530 575 796 1129 1065 875 667 556 478 204 38 50 0 0 23 1 3 2 0 0 0 3 1 1 2
727 432 470 434 643 1023 1111 842 822 883 1192 1245 1272 1082 887 479 143 30 71 63 35 58 1 1 2 0 0 1 2 14 8 13
988 990 665 531 944 1183 1012 1000 935 849 925 1060 1010 997 783 404 202 73 56 55 85 47 0 6 1 0 0 1 1 2 16 19
527 899 1245 1045 985 1113 1379 1152 972 916 1030 1288 1153 798 677 635 514 258 63 69 55 2 0 9 1 1 8 12 1 1 12 0
364 545 986 1315 1305 992 1338 1143 984 1003 1029 1116 867 661 646 603 485 235 158 85 62 5 0 0 13 20 1 0 0 0 0 0
374 524 731 1041 1409 1288 1238 1110 912 911 1093 1073 774 810 572 393 323 229 159 110 90 11 13 29 21 7 0 0 0 0 0 0
391 466 528 760 1191 1352 1435 1333 1052 947 1065 1082 541 543 334 375 297 342 190 120 52 75 9 0 0 2 0 0 0 0 0 0
403 588 744 828 1020 1238 1376 1384 1210 1001 1208 781 323 414 420 724 258 139 54 19 19 2 7 0 2 0 0 0 0 0 0 0
309 667 833 1026 1034 1229 1253 1305 1245 1003 765 515 284 561 573 236 72 5 10 3 4 0 0 0 1 0 0 0 0 0 0 0
26 346 884 1198 1304 1303 1216 1303 892 624 343 160 279 379 217 80 43 35 35 47 16 0 0 0 2 0 0 0 0 0 0 0
0 43 497 1269 1356 1311 961 753 391 313 210 202 270 128 78 66 52 93 51 47 57 19 2 0 0 0 0 0 0 0 0 0
22 49 592 1117 1060 792 737 479 439 242 205 225 113 141 110 82 37 27 62 29 0 0 0 0 0 0 0 0 0 0 0 0
83 315 487 526 320 300 346 467 296 168 157 100 113 71 57 39 24 0 3 4 0 0 0 0 0 0 0 0 0 0 0 0

GFSFLT1_con_mucape_078.txt.gz
CAPE
1 1 0 0 1 5 0 0 0 0 0 0 16 134 126 177 229 295 337 419 448 219 156 41 0 0 0 0 0 0 0 0
5 10 6 0 0 0 0 0 0 0 15 9 75 73 199 295 222 215 361 398 403 332 96 34 0 0 0 0 0 0 0 0
47 79 58 18 0 0 1 9 2 0 51 98 24 85 166 255 259 359 363 380 350 247 68 16 0 0 0 0 0 0 0 0
48 40 81 50 22 15 13 36 52 134 161 231 29 148 226 321 328 368 318 214 143 103 120 19 0 0 0 0 0 0 0 0
138 95 90 22 18 20 14 23 223 366 368 63 6 42 172 264 319 303 243 141 34 76 53 8 0 0 0 0 0 0 0 0
120 169 259 182 31 12 31 104 292 394 513 497 110 326 260 343 367 312 179 51 20 62 3 26 15 0 2 0 0 0 0 0
202 212 232 217 251 160 167 359 479 505 645 678 525 427 340 347 345 281 178 65 39 48 43 0 3 6 4 1 0 0 0 8
228 227 235 291 295 347 469 432 374 622 679 778 633 605 415 410 303 196 120 39 59 50 23 5 53 6 2 1 0 0 2 2
525 314 261 281 362 524 476 480 434 463 946 949 797 966 647 554 357 238 52 7 66 82 75 47 34 4 1 6 4 0 0 1
805 679 453 306 354 598 731 776 700 712 1095 1111 970 864 991 662 352 219 113 47 174 99 71 95 36 2 3 13 3 12 13 0
346 755 896 469 458 575 821 863 838 920 910 999 1050 735 934 711 468 340 224 198 180 110 74 37 40 9 13 5 6 10 0 0
366 438 616 1176 750 723 1000 1095 1120 1051 949 1014 1014 981 791 628 561 403 323 267 177 111 34 9 8 0 1 1 0 4 0 0
231 395 549 816 1335 982 1047 1135 1132 1027 938 1064 1034 868 645 557 588 455 587 229 136 45 1 0 3 0 0 0 0 1 7 0
179 370 462 557 870 1473 1258 1171 1082 1004 902 971 1037 692 442 664 304 225 321 153 180 77 16 7 10 6 0 1 1 0 0 0
14 310 487 675 867 1164 1326 1363 1184 1073 777 707 856 587 313 462 312 338 312 239 154 56 7 8 1 15 12 0 0 0 0 0
0 24 496 783 941 1273 1365 1283 1195 999 956 756 507 540 251 253 396 291 201 145 65 34 13 11 12 0 0 0 0 0 0 0
0 0 50 1007 1203 1210 1096 1171 1133 855 766 630 526 258 228 180 297 133 42 37 72 55 38 31 16 0 0 0 0 0 0 0
26 29 54 1283 1145 1171 1013 1044 872 926 730 460 386 156 141 138 92 46 36 79 46 45 41 0 0 0 0 0 0 0 0 0
14 75 711 984 1069 940 855 657 626 533 429 253 107 65 59 41 57 103 28 26 14 25 0 0 0 0 0 0 0 0 0 0

GFSFLT1_con_mucape_081.txt.gz
CAPE
8 4 0 19 53 23 11 0 2 3 1 2 4 1 1 21 26 92 33 32 106 162 90 89 43 11 0 0 0 0 0 0
29 32 9 4 9 0 0 0 0 0 0 0 0 0 23 7 32 64 64 80 99 110 171 61 26 0 0 0 0 0 0 0
1 0 0 0 0 0 0 0 0 0 0 0 0 2 15 35 32 26 33 88 145 133 89 63 17 0 0 0 0 0 0 0
0 0 2 0 0 0 0 0 0 0 0 0 0 3 27 15 5 10 99 176 216 181 101 49 2 0 0 0 0 0 0 0
0 0 0 0 0 0 0 0 0 0 0 0 0 0 0 3 40 69 157 219 168 126 82 56 16 0 8 0 0 0 0 0
2 1 0 0 0 0 0 0 0 0 0 0 0 0 0 93 149 151 240 189 172 99 42 22 20 3 0 0 0 0 0 0
65 0 0 0 0 0 0 0 0 6 8 38 82 27 28 75 173 170 217 218 137 34 30 22 21 3 0 1 0 0 3 0
137 71 0 1 0 0 0 0 0 59 118 137 159 39 27 144 163 234 266 215 155 63 47 66 67 33 5 3 13 1 6 3
244 168 102 37 48 2 0 0 0 95 209 242 248 205 151 111 225 264 287 229 204 101 42 89 74 65 90 47 39 0 11 24
262 301 320 277 164 98 55 26 3 133 365 388 358 280 193 370 358 307 282 277 199 117 51 91 92 81 33 18 0 0 18 13
270 281 347 351 323 274 227 129 209 197 163 439 529 526 512 383 373 381 414 219 176 111 90 76 110 53 51 4 2 0 0 2
123 199 304 408 419 332 318 242 243 313 230 634 762 690 556 757 751 399 351 272 161 129 127 86 42 13 1 1 0 0 0 0
55 98 139 335 463 433 394 364 325 425 436 665 1010 981 804 583 740 742 545 351 207 171 140 71 18 11 23 4 8 0 0 0
4 39 106 399 522 550 463 445 451 569 668 760 779 934 936 622 359 470 418 408 330 436 233 111 64 20 20 4 1 12 9 0
2 18 58 146 500 715 641 630 645 732 762 936 849 919 923 608 486 352 325 338 326 281 109 63 81 11 19 4 16 10 1 0
0 34 73 158 378 866 963 963 988 1037 1009 899 940 887 734 523 380 345 336 145 138 126 1 55 33 27 13 1 3 0 0 0
0 0 85 309 582 867 1144 1082 976 934 854 860 712 609 429 311 319 216 145 138 52 51 66 53 32 21 24 0 0 0 0 0
0 46 457 629 749 820 888 967 949 959 807 605 529 409 298 229 131 111 179 97 80 95 31 20 12 2 2 0 0 0 0 0
8 330 510 736 757 783 836 833 728 746 672 357 222 226 155 68 45 77 102 78 40 33 48 49 0 2 0 0 0 0 0 0

GFSFLT1_con_mucape_084.txt.gz
CAPE
0 0 21 12 49 30 23 3 22 38 34 28 6 3 8 3 7 21 67 53 123 138 92 54 46 36 14 0 0 0 0 0
16 2 4 14 9 18 17 27 11 11 12 2 3 3 0 1 1 3 45 23 75 144 107 69 51 43 9 0 0 0 0 0
6 0 0 0 0 0 0 0 0 2 3 11 2 0 0 0 1 6 2 0 17 49 89 70 46 27 0 0 0 0 0 0
0 0 0 0 0 0 0 0 0 0 0 0 0 0 0 5 10 0 0 0 9 48 65 118 36 10 14 1 0 0 0 0
0 0 0 0 0 0 0 0 0 0 0 0 0 0 0 0 0 0 0 23 43 50 59 81 66 23 50 6 4 0 0 0
0 0 0 0 0 0 0 0 0 0 0 0 0 0 0 0 0 0 0 1 32 55 70 108 76 45 45 6 20 1 0 0
41 0 0 0 0 0 0 0 0 0 0 0 0 0 0 0 5 2 14 4 26 73 104 123 113 81 50 48 12 9 3 4
111 14 0 0 0 0 0 0 0 0 0 0 0 0 0 0 13 22 9 13 80 127 126 111 118 75 64 76 95 63 46 29
158 116 39 6 0 0 0 0 0 0 16 23 0 0 0 26 26 17 19 10 75 145 110 67 89 86 75 90 80 24 19 0
209 221 176 131 57 11 0 0 0 0 0 11 50 48 39 89 157 39 57 51 60 120 163 90 68 100 132 136 128 28 5 1
258 253 244 258 213 180 46 12 0 0 0 34 77 164 153 139 206 116 79 110 149 128 147 128 104 116 159 135 64 15 4 2
198 244 240 233 212 215 185 121 66 18 4 12 106 177 211 290 220 175 127 155 167 176 161 129 67 71 107 47 28 24 9 9
141 157 146 167 221 221 254 205 174 143 98 138 119 245 351 370 397 217 175 278 273 181 140 79 40 45 51 46 18 29 10 7
85 96 92 112 143 241 306 366 324 251 248 179 201 279 326 349 398 422 259 76 22 179 78 55 156 45 28 7 16 15 13 2
30 8 58 103 110 197 354 402 436 416 374 314 347 394 525 561 572 483 210 19 24 130 125 134 180 30 29 13 5 21 11 0
0 4 25 116 132 233 331 431 513 471 429 357 423 455 581 598 462 412 55 184 154 162 192 140 70 98 31 46 17 6 7 7
0 0 8 37 209 278 351 487 548 548 505 466 481 516 561 519 352 411 169 173 168 98 363 181 48 0 22 8 3 2 7 0
0 2 40 87 248 425 489 630 643 624 552 561 617 563 337 336 299 159 171 315 274 263 69 83 28 42 18 10 2 0 0 0
92 92 113 155 394 611 752 811 803 776 662 574 547 483 337 183 286 174 96 20 69 138 63 42 23 24 11 11 0 0 1 0

GFSFLT1_con_mucape_087.txt.gz
CAPE
0 5 7 26 8 5 21 37 58 61 9 9 2 7 0 40 58 48 68 77 56 2 3 6 9 0 10 30 22 0 0 0
4 16 8 15 5 25 4 10 15 17 24 0 2 28 0 0 49 64 41 74 136 110 21 34 48 30 33 18 2 0 0 0
0 1 5 14 7 5 0 8 11 24 5 30 36 22 6 11 5 2 36 42 68 93 70 63 52 59 65 52 8 0 0 0
3 1 4 0 1 3 0 0 9 6 13 4 4 10 4 1 8 7 2 32 13 27 87 62 75 67 71 61 22 2 2 0
0 1 1 2 0 0 0 0 0 0 5 4 1 1 0 0 1 6 3 0 5 2 7 44 70 84 65 69 26 5 4 0
0 0 0 0 0 0 0 0 0 0 0 0 0 0 0 0 0 0 0 0 0 0 2 11 49 89 120 76 8 22 19 37
3 0 0 0 0 0 0 0 0 0 0 0 0 0 0 0 0 0 0 0 0 0 0 16 46 86 119 101 31 35 32 42
64 2 0 0 0 0 0 0 0 0 0 0 0 0 0 0 0 0 0 0 0 0 2 22 42 87 118 105 49 41 45 59
92 76 12 14 0 0 0 0 0 0 0 0 0 0 0 0 0 0 0 0 0 4 1 7 32 106 147 87 28 43 66 16
95 176 122 140 88 14 0 0 0 0 0 0 0 0 0 0 0 0 0 0 1 1 2 1 26 154 161 133 76 72 72 64
87 122 191 164 177 146 72 23 0 0 0 0 0 0 0 0 0 0 0 12 23 8 20 18 31 120 87 104 89 126 116 73
46 112 207 191 178 174 168 115 16 3 3 0 0 5 10 14 0 6 29 54 120 153 50 60 80 53 46 79 61 82 108 27
45 84 152 198 149 118 140 168 127 80 3 8 1 0 0 0 46 129 170 177 158 173 86 56 25 37 114 73 88 108 137 40
47 71 97 125 131 102 81 142 174 136 93 54 40 52 43 37 65 86 161 246 247 79 64 14 44 122 152 98 42 91 74 11
62 61 79 96 93 95 70 108 159 179 193 237 210 164 150 123 138 128 164 270 177 0 0 0 4 106 61 36 34 81 103 75
9 55 78 75 67 60 56 65 100 127 143 217 237 241 265 220 171 140 159 164 182 81 6 34 26 155 70 64 45 20 129 33
1 15 47 60 66 68 40 48 62 77 137 225 257 278 264 232 205 189 247 323 362 219 40 52 52 222 138 93 43 30 24 1
4 4 1 26 57 76 72 78 109 128 193 286 341 324 265 282 317 276 543 164 420 249 78 151 266 97 144 91 3 2 18 3
11 15 0 0 19 71 118 140 166 230 364 410 368 357 422 400 316 194 88 243 68 97 133 158 181 96 54 64 47 7 0 5

GFSFLT1_con_mucape_090.txt.gz
CAPE
29 7 3 19 1 32 28 27 40 10 2 15 31 8 56 96 100 128 126 150 168 125 58 5 9 18 34 30 35 36 17 0
2 0 2 33 12 9 9 40 46 17 10 17 12 0 40 75 73 51 27 58 85 79 35 14 13 23 28 22 13 30 0 0
7 0 0 1 3 3 0 59 14 18 16 5 7 2 83 66 20 35 42 45 65 28 31 20 23 22 15 8 43 52 7 0
1 7 0 1 0 1 4 6 1 1 0 5 4 4 49 65 81 56 29 72 115 130 98 40 28 59 29 21 46 53 41 0
0 1 3 0 0 4 0 14 13 16 11 0 10 18 8 5 0 55 85 67 50 107 103 98 86 51 45 37 47 45 53 11
1 0 2 0 1 2 0 2 2 11 0 0 0 0 11 9 0 3 2 9 38 30 32 49 43 46 61 63 67 55 42 40
17 0 0 0 0 0 0 0 0 0 0 0 0 0 0 0 0 0 0 0 0 0 0 0 2 20 43 77 59 55 73 44
36 7 0 0 0 0 0 0 0 0 0 0 0 0 0 0 0 0 0 0 0 0 0 0 0 20 42 50 61 71 74 64
52 50 24 0 0 2 0 0 0 0 0 0 0 0 0 0 0 0 0 0 0 0 0 0 0 1 9 16 31 69 86 80
47 68 91 71 33 11 0 0 0 0 0 0 0 0 0 0 0 0 0 0 0 0 0 0 0 0 5 11 11 46 90 85
31 75 65 101 105 72 44 4 0 0 0 0 0 0 0 0 0 0 0 1 1 0 0 5 3 6 9 23 39 83 99 90
16 47 73 77 104 150 125 106 24 0 0 0 0 0 0 0 0 0 0 0 0 0 0 5 11 51 80 58 60 63 92 77
0 0 26 57 68 118 110 82 111 118 14 0 0 0 0 0 0 0 0 0 0 7 23 32 59 53 116 78 56 42 0 0
0 12 31 51 84 86 101 95 82 85 106 16 1 0 0 1 0 0 15 32 52 89 115 109 141 140 62 67 43 0 73 28
2 16 64 64 81 105 99 88 87 72 127 148 141 103 88 70 27 36 56 65 54 64 50 114 9 30 0 8 17 73 100 131
0 7 30 50 61 84 93 89 65 38 38 57 92 103 112 155 181 152 115 83 86 101 96 93 166 101 10 17 18 16 142 54
4 0 7 31 63 82 86 74 74 55 27 4 36 79 103 160 155 126 107 128 134 105 199 363 338 123 68 43 30 99 67 80
5 0 0 0 6 75 86 81 69 62 52 41 52 80 124 122 116 126 103 128 438 354 145 177 157 275 77 50 124 88 117 93
4 0 0 1 8 20 37 46 53 53 55 65 94 108 143 164 184 196 381 306 187 128 109 152 95 93 53 65 68 95 11 11

GFSFLT1_con_mucape_093.txt.gz
CAPE
0 4 9 5 14 14 8 7 11 6 32 11 2 25 24 16 28 59 83 81 45 18 10 12 2 2 14 27 41 57 71 52
0 1 0 20 14 10 6 29 12 4 25 24 4 26 12 12 71 49 60 77 89 63 35 44 21 21 37 31 43 51 74 75
0 11 0 0 12 0 1 0 4 6 9 9 25 6 2 1 56 48 68 72 97 118 92 60 59 28 30 31 23 48 56 44
2 9 1 1 0 0 0 0 12 3 4 17 14 6 2 1 49 21 47 45 64 68 87 90 74 53 23 20 31 31 46 43
6 3 1 4 0 0 1 0 19 2 1 24 9 19 0 1 5 19 1 32 53 65 39 63 74 67 30 16 26 17 44 36
13 0 2 0 0 0 0 0 4 0 5 7 3 4 21 11 12 22 11 21 40 50 89 74 128 83 48 49 65 33 46 50
18 3 4 0 0 0 0 0 3 1 9 6 0 0 6 11 13 1 0 1 0 41 35 79 114 101 44 65 68 62 57 57
10 33 0 0 0 0 0 0 0 1 2 3 0 0 1 0 0 2 0 0 1 0 49 74 83 73 51 57 47 56 58 59
4 47 28 0 0 0 0 0 0 0 0 0 0 0 0 0 1 3 0 0 7 0 6 34 38 41 35 12 2 5 17 34
10 52 72 53 9 1 0 0 0 0 0 0 0 0 0 0 0 0 0 0 0 0 0 0 1 1 5 8 17 4 1 2
7 31 76 108 105 55 3 0 1 0 0 0 0 0 0 0 0 0 0 0 0 0 0 0 0 0 0 0 1 0 0 5
2 26 56 83 109 127 121 38 0 0 0 0 0 0 0 0 0 0 0 0 0 0 0 0 0 2 0 0 0 11 67 59
1 31 49 78 90 91 91 120 103 57 11 0 0 0 0 0 0 0 0 0 0 0 0 0 3 2 3 0 0 20 45 68
0 1 10 29 58 47 49 44 62 59 70 70 24 0 0 0 7 2 0 0 0 0 0 0 2 11 24 62 92 79 77 1
0 1 15 35 46 46 32 32 27 31 53 67 65 76 32 3 0 1 13 1 0 0 0 9 9 11 27 42 2 3 52 0
7 7 17 35 42 46 64 45 37 36 30 36 42 44 70 72 78 110 113 100 98 69 46 47 59 40 27 100 79 173 63 1
11 3 0 6 31 34 54 59 73 59 47 47 40 31 47 63 62 94 150 130 98 78 80 72 219 131 141 81 84 96 147 40
15 17 1 0 5 18 55 60 61 67 60 64 68 55 36 53 100 104 121 125 73 133 117 113 129 124 107 72 62 54 103 67
22 24 16 3 2 4 2 24 61 87 77 76 74 69 86 111 136 123 85 111 128 141 121 131 152 83 56 50 84 36 47 11

GFSFLT1_con_mucape_096.txt.gz
CAPE
43 0 5 5 6 41 43 4 8 0 10 10 28 3 14 24 9 59 6 4 31 76 38 33 3 0 0 2 3 24 47 53
20 1 5 0 0 4 11 5 0 4 0 4 16 8 7 17 8 6 25 8 79 98 42 50 25 10 16 9 11 24 63 62
14 0 4 0 0 0 4 2 4 7 5 9 9 22 15 22 14 10 19 49 100 84 58 90 87 46 37 20 18 27 59 69
54 0 6 10 0 0 0 0 0 21 3 2 11 31 31 36 25 15 11 34 81 78 79 84 109 109 71 53 21 14 48 76
118 15 1 0 0 0 0 0 0 10 0 2 2 29 0 3 5 8 24 15 37 93 101 111 123 113 107 73 18 27 34 43
164 95 0 6 1 0 0 0 0 0 3 7 2 13 4 7 6 9 37 2 44 35 61 62 93 107 131 139 75 55 45 66
197 101 27 3 10 13 0 0 0 0 0 6 9 2 10 0 0 2 53 47 105 56 40 63 71 131 157 193 212 167 86 54
227 103 33 51 4 9 13 0 0 3 0 0 5 1 0 11 19 6 2 0 6 12 55 70 88 128 153 183 218 203 222 127
256 176 93 46 9 6 10 14 5 0 0 1 4 0 0 3 2 23 20 2 28 72 67 64 75 33 173 225 335 245 266 232
273 223 140 53 38 2 8 10 9 0 0 1 1 0 0 0 17 2 4 9 29 62 67 72 66 95 111 150 147 192 286 284
244 259 174 85 43 21 4 5 6 10 11 9 0 0 0 0 11 6 1 0 1 10 36 39 54 48 47 66 105 137 158 309
185 300 229 119 56 35 9 1 0 2 8 15 14 12 11 8 2 1 0 0 1 2 4 13 20 23 35 124 110 90 107 144
120 223 258 165 102 66 57 65 66 6 0 1 4 8 9 7 5 2 0 0 0 1 3 3 5 6 64 133 152 53 70 75
139 154 254 231 158 127 75 61 61 60 54 4 1 5 5 6 3 4 6 5 7 7 8 9 7 24 11 36 85 5 4 10
161 195 229 253 220 187 131 92 59 43 29 42 64 43 0 3 6 6 8 0 2 1 1 1 3 1 3 16 21 26 91 105
50 187 337 328 304 254 204 163 100 68 52 54 73 60 48 28 0 0 0 0 0 9 7 1 10 47 82 102 55 36 62 61
25 22 156 393 356 313 254 260 205 121 73 75 54 29 36 62 51 39 41 50 89 129 109 86 130 68 131 80 133 70 70 37
11 7 2 167 323 296 350 327 278 187 154 117 91 59 31 21 22 33 55 75 110 104 83 71 75 69 107 122 80 104 89 78
0 0 10 0 138 286 352 306 276 202 172 136 109 109 99 85 73 79 86 110 98 74 83 81 90 124 109 144 88 60 47 35

GFSFLT1_con_mucape_099.txt.gz
CAPE
546 280 180 37 22 9 0 1 0 0 0 11 10 1 89 79 119 40 11 22 13 29 16 84 168 184 181 74 52 10 0 0
423 223 134 45 12 9 0 0 0 0 0 0 0 18 50 55 89 68 28 11 19 2 18 102 176 74 35 40 61 129 19 24
366 235 134 20 7 3 0 1 2 0 0 0 7 6 7 39 43 46 19 4 5 5 40 129 144 82 84 115 160 61 34 9
411 198 133 129 13 4 0 0 9 2 7 1 29 24 32 26 38 27 23 23 16 3 66 147 161 161 149 174 177 126 54 18
445 298 63 157 40 11 16 0 3 1 4 0 0 3 22 17 9 25 21 5 12 66 88 172 208 193 176 157 128 156 148 35
374 366 87 88 138 10 0 0 0 0 8 8 0 2 16 15 4 10 13 33 7 85 121 190 252 180 223 231 175 151 125 139
309 415 107 71 67 52 11 0 0 0 6 1 2 2 3 0 8 0 20 24 53 82 94 179 197 217 218 209 172 117 163 223
376 425 204 84 62 14 6 2 0 0 0 0 5 6 14 4 2 9 12 2 2 0 50 79 114 157 169 203 166 256 227 232
421 436 303 180 163 115 7 5 6 0 0 0 0 3 1 5 4 15 4 9 116 2 2 0 0 66 76 174 320 174 190 303
437 448 408 224 233 146 68 31 8 3 0 7 11 12 0 0 4 1 73 70 84 102 80 55 61 72 104 66 107 126 193 264
410 464 504 329 225 171 93 66 50 10 9 2 0 11 18 10 33 43 66 77 47 55 71 60 66 68 86 115 133 178 192 251
366 501 536 425 277 180 137 92 52 37 21 10 15 12 15 15 31 49 41 51 64 63 68 82 93 108 132 173 174 163 163 217
252 512 551 508 306 194 170 117 68 70 45 20 9 12 11 12 15 24 47 50 55 40 35 20 37 52 90 117 170 136 199 253
278 508 603 590 422 267 182 88 66 29 44 68 40 25 12 8 12 44 38 36 32 28 32 52 44 67 96 174 207 229 245 289
263 439 589 619 575 419 272 114 46 28 18 34 42 39 31 48 49 28 145 69 32 26 66 69 124 26 26 69 80 183 215 181
132 327 489 622 622 569 434 322 130 50 50 46 55 49 77 41 40 41 19 20 16 22 16 13 24 34 25 50 36 20 33 54
47 114 331 434 518 585 505 431 364 219 157 120 85 77 73 77 85 86 41 24 17 18 14 25 53 0 0 14 27 32 34 78
23 60 131 294 546 499 537 491 494 354 265 209 159 134 112 103 92 71 93 81 55 18 28 60 65 71 55 39 41 65 159 150
36 22 45 85 410 588 548 538 508 457 356 263 228 189 152 129 117 85 69 58 87 77 70 75 68 139 146 144 118 109 122 104

GFSFLT1_con_mucape_102.txt.gz
CAPE
517 391 332 128 190 22 6 5 11 8 0 0 16 64 135 132 28 5 22 13 42 51 76 114 62 80 110 70 45 0 0 0
673 420 351 74 30 3 5 2 2 0 0 0 5 1 10 114 76 32 14 15 25 44 68 49 38 51 60 71 31 10 0 0
643 410 301 18 0 9 1 3 0 0 0 3 0 0 0 34 99 45 32 5 12 23 31 42 65 14 1 45 33 22 23 14
559 396 289 29 0 40 13 0 0 0 0 0 0 0 27 51 88 45 11 10 7 8 4 4 1 22 42 62 58 51 53 38
546 391 311 77 1 21 12 46 0 0 0 0 0 0 2 6 55 20 31 20 9 14 10 11 2 26 60 63 99 122 82 59
582 360 278 177 1 22 141 13 33 0 0 0 16 0 34 29 28 6 27 3 14 24 8 10 2 7 96 93 118 113 81 63
454 425 225 130 62 26 46 60 73 0 0 0 0 13 4 11 18 27 23 20 17 6 8 2 36 49 76 93 116 100 113 67
352 413 210 46 56 8 14 20 13 3 0 0 6 3 1 1 6 11 10 7 9 7 7 0 3 2 13 89 130 98 82 106
306 441 212 57 37 3 16 37 12 3 0 0 0 0 0 4 0 0 0 0 4 3 2 3 0 37 70 70 48 89 111 112
353 472 283 124 41 13 21 22 17 10 1 0 0 0 0 3 2 0 0 1 0 3 3 2 33 3 24 54 45 52 84 65
416 451 434 277 151 78 14 9 2 0 0 0 0 0 0 0 0 0 1 0 8 13 11 1 5 12 12 39 34 48 57 52
435 450 522 329 231 173 53 26 6 2 8 4 3 0 0 0 0 0 1 1 0 19 22 15 12 6 13 17 10 21 16 19
395 467 621 428 254 172 83 59 44 18 7 37 5 0 1 5 0 0 0 13 6 2 5 12 4 0 2 6 15 26 39 39
249 487 646 541 363 240 113 78 49 37 28 17 2 5 8 4 3 9 13 13 15 13 14 5 1 2 8 12 12 18 19 42
319 457 629 625 465 352 213 110 74 59 38 32 24 17 5 2 0 0 0 3 7 11 16 19 17 22 25 24 27 26 50 80
64 434 562 715 634 484 322 210 110 78 62 78 77 65 54 41 22 22 6 17 8 13 18 27 39 39 31 20 40 64 42 40
0 123 407 612 758 630 451 335 170 98 73 61 78 121 102 91 110 107 93 62 50 27 31 28 20 18 12 34 36 73 33 33
0 25 83 503 657 717 641 521 324 201 86 107 100 119 112 105 114 100 77 76 61 62 61 58 62 25 24 61 81 71 76 106
14 65 73 35 555 637 668 597 508 328 236 213 172 129 124 139 112 91 110 105 116 82 63 51 56 69 69 58 66 59 103 123

GFSFLT1_con_mucape_105.txt.gz
CAPE
356 312 293 244 167 105 1 0 6 9 1 14 90 91 42 24 9 59 103 97 87 68 74 40 39 8 38 0 19 5 0 0
319 252 263 193 109 38 0 1 8 1 0 0 6 42 57 38 12 55 108 87 38 28 65 50 86 65 52 36 52 26 0 0
328 283 274 172 86 0 0 8 35 2 0 0 0 0 31 69 25 18 92 24 9 20 21 40 62 52 84 67 64 42 3 0
404 371 303 195 35 0 0 22 0 0 0 0 0 0 0 28 85 49 19 32 30 3 11 34 51 42 44 40 60 66 5 0
473 386 239 118 3 0 5 34 1 0 5 3 2 1 0 0 20 25 26 24 22 10 10 27 38 33 25 11 34 55 20 23
389 300 193 56 0 0 0 36 82 0 12 0 0 4 0 2 18 42 7 18 8 11 7 25 25 10 3 6 15 58 59 50
295 272 171 93 3 0 0 74 10 0 10 11 0 0 2 6 9 1 10 27 6 12 5 1 15 4 3 4 39 62 52 64
271 305 226 103 12 0 0 31 11 4 3 0 0 1 9 5 11 17 10 13 17 15 13 14 13 7 7 6 0 23 39 63
355 311 211 139 21 0 0 1 19 2 0 15 0 0 0 8 11 37 24 16 13 21 12 6 17 3 20 22 3 5 52 49
393 312 233 139 32 2 0 0 1 1 0 3 0 0 0 3 4 31 10 26 11 26 8 6 2 8 24 0 95 3 36 46
360 327 250 220 84 17 0 0 1 1 0 1 0 0 0 0 1 0 0 0 6 21 1 3 11 8 0 0 0 24 0 0
409 361 338 325 208 5 0 0 0 1 0 0 0 0 0 0 1 0 0 0 0 4 11 20 13 11 11 12 15 10 43 26
409 464 408 359 284 71 0 0 0 0 1 0 0 0 0 0 0 0 0 0 0 0 4 12 2 10 11 5 0 0 13 1
120 517 434 389 340 173 27 0 0 0 0 0 0 1 0 0 0 0 0 0 0 0 0 2 0 0 0 0 0 1 4 12
131 490 466 439 371 299 130 16 3 4 0 9 5 9 0 0 0 0 0 0 0 0 0 6 12 5 0 1 8 9 18 34
2 57 398 449 398 363 254 80 38 31 1 0 12 13 6 1 0 0 0 0 2 4 2 9 12 10 7 11 27 35 31 35
0 9 184 352 476 431 388 240 66 42 25 14 7 15 26 33 17 0 2 7 9 18 19 24 15 16 17 19 25 25 37 82
9 0 19 3 313 485 452 441 312 95 64 50 26 24 19 21 40 40 24 14 32 27 50 42 57 35 57 76 65 78 86 93
33 37 9 45 314 434 437 451 421 266 147 65 65 82 73 60 108 78 88 84 106 72 91 74 64 59 59 33 34 49 24 32

GFSFLT1_con_mucape_108.txt.gz
CAPE
12 442 647 662 532 444 303 97 65 3 31 86 45 55 7 54 66 39 109 111 88 46 49 0 0 0 0 0 0 0 0 0
146 586 621 555 489 333 196 17 9 12 0 88 139 80 0 31 39 41 72 78 130 74 4 0 0 0 0 0 0 0 0 0
250 689 560 453 350 253 46 0 0 4 0 2 51 49 24 8 6 38 93 66 56 21 1 0 0 0 1 0 12 15 0 1
320 650 506 376 301 154 0 0 2 0 0 0 5 39 52 26 22 61 45 24 47 23 15 2 1 0 0 0 5 9 15 11
331 561 448 347 282 114 0 0 2 12 0 0 0 0 4 82 30 39 62 74 38 39 41 11 11 7 7 0 0 17 22 17
330 516 468 380 313 50 0 0 1 2 0 0 0 0 0 9 79 107 26 83 79 71 70 47 28 34 20 13 4 52 66 16
269 361 498 453 284 1 0 0 1 1 0 2 4 3 0 18 2 8 58 35 71 64 8 30 4 29 43 43 53 47 63 4
232 393 585 441 151 0 0 1 1 16 13 1 4 0 0 0 8 12 16 7 38 47 15 17 11 38 37 61 47 31 18 6
209 338 577 382 135 1 0 0 1 1 14 15 0 0 0 4 0 22 27 12 18 10 18 11 12 41 44 39 31 21 7 17
251 334 533 328 146 0 0 0 0 0 4 35 2 0 0 0 0 8 31 12 20 42 33 4 8 15 23 33 23 23 16 21
290 448 474 347 150 0 0 0 0 0 2 30 11 0 0 0 0 0 2 9 17 40 32 33 26 20 17 9 14 29 21 2
306 485 486 310 182 24 0 0 0 0 3 3 70 0 0 0 0 0 0 7 18 27 25 5 36 13 22 36 24 1 3 7
66 404 411 366 236 118 0 0 0 0 1 1 11 0 0 0 0 0 0 0 0 12 41 28 21 11 11 8 2 9 6 14
0 308 392 311 323 254 15 0 0 0 0 0 0 1 0 0 0 0 0 0 0 0 0 5 7 2 1 3 11 18 5 9
1 60 153 249 220 322 160 0 0 0 0 0 0 0 0 0 0 0 0 0 0 0 0 0 1 0 0 1 6 6 24 13
0 40 151 188 211 231 244 94 0 0 0 0 0 0 0 0 0 0 0 0 0 0 0 0 0 2 5 3 5 15 19 16
0 8 89 207 210 253 218 190 103 0 5 10 2 2 0 0 0 0 0 0 0 0 1 12 13 12 17 15 15 8 10 28
65 52 1 0 178 183 240 230 186 98 27 33 18 9 5 9 0 0 2 0 9 31 21 12 19 25 23 23 42 49 40 46
76 90 51 4 0 65 176 199 177 122 131 72 45 12 18 16 18 12 6 18 0 29 33 40 39 37 38 49 63 59 69 63

GFSFLT1_con_mucape_111.txt.gz
CAPE
0 0 239 331 591 772 623 355 248 113 129 98 43 20 1 5 11 5 2 56 22 22 12 44 60 0 0 0 0 0 0 0
0 139 392 352 667 727 514 393 228 64 93 505 42 26 85 3 8 4 27 50 52 33 57 74 14 0 0 0 0 0 0 0
10 152 391 461 675 646 490 378 205 34 32 239 174 64 34 16 37 59 55 61 16 10 15 37 11 0 0 0 0 0 0 0
3 198 291 495 666 620 496 331 131 9 10 44 37 62 26 35 25 60 73 77 25 14 7 31 12 0 0 0 0 0 0 0
11 242 271 503 658 604 414 293 19 0 10 8 20 95 1 6 129 22 64 83 64 39 45 38 44 0 0 0 0 0 0 0
8 192 261 400 578 548 380 236 0 0 3 6 0 8 172 14 5 49 59 64 71 78 58 65 46 0 0 0 0 3 0 7
0 73 182 278 491 504 343 203 0 1 5 0 0 0 0 18 33 26 23 65 79 86 90 74 28 0 3 0 0 15 39 39
11 40 197 258 452 458 351 141 0 3 71 4 0 0 0 0 1 18 98 65 70 30 56 95 59 40 4 29 0 31 60 94
79 50 137 215 384 447 391 73 0 1 6 11 0 2 0 0 0 0 3 39 74 33 43 37 62 43 17 4 19 22 54 73
0 263 144 186 346 468 401 21 0 1 3 2 6 5 0 2 16 7 6 14 10 18 36 57 45 55 42 36 42 62 56 14
1 284 286 166 264 483 249 0 0 0 5 2 2 1 0 0 0 1 4 13 21 0 13 49 33 35 28 51 49 53 61 43
12 87 250 172 293 419 181 0 0 0 1 2 1 0 22 0 0 0 17 12 11 17 18 45 15 35 22 47 31 36 39 14
1 19 157 284 420 315 152 0 0 0 0 2 1 0 6 0 0 0 0 9 28 27 38 23 24 32 36 52 31 44 5 1
0 2 50 203 285 277 105 0 0 0 0 2 0 0 0 1 0 0 0 0 0 0 5 17 15 17 40 55 3 11 25 26
1 3 22 71 135 183 120 20 0 0 0 0 2 1 0 0 0 0 0 0 0 0 0 4 3 6 3 9 26 13 12 4
1 0 8 87 77 127 126 98 7 0 0 0 2 2 3 0 0 0 0 2 2 0 0 0 2 3 20 14 20 8 6 1
0 27 0 49 50 149 142 157 113 0 0 0 3 3 4 0 0 0 0 0 0 0 0 0 0 0 0 0 0 0 0 0
0 0 0 16 39 59 77 90 104 96 0 0 9 1 7 0 0 0 0 0 0 6 7 9 0 0 0 7 6 16 17 28
45 6 34 20 15 12 39 81 205 112 111 14 7 2 11 0 0 0 0 0 12 0 0 2 1 7 10 24 33 35 37 17

GFSFLT1_con_mucape_114.txt.gz
CAPE
0 0 0 0 26 249 325 486 768 855 498 162 37 43 0 0 0 1 56 21 78 39 28 33 57 86 0 0 0 0 0 0
0 0 0 13 248 345 408 596 903 633 353 79 42 40 16 0 5 3 16 3 25 3 17 21 33 84 0 0 0 0 0 0
0 0 0 97 267 421 498 804 746 492 265 147 53 132 58 9 2 23 3 11 0 17 26 30 2 83 0 0 0 0 0 0
0 0 0 69 285 427 580 803 653 444 225 121 292 206 50 17 9 9 3 10 38 29 45 51 46 96 0 0 0 0 0 0
0 0 0 23 193 314 586 736 570 418 163 30 59 107 25 7 4 10 3 25 16 27 15 35 49 84 0 0 0 0 0 0
0 0 0 9 121 261 521 666 501 379 146 34 88 73 15 41 29 73 19 22 14 48 33 44 32 69 12 0 0 0 0 0
0 0 29 85 114 240 506 663 524 365 149 17 23 18 50 42 22 30 83 60 40 20 23 28 22 26 52 0 0 0 0 0
0 0 111 109 137 175 414 661 582 388 150 18 19 23 47 121 32 18 48 41 85 30 16 17 12 25 26 6 0 0 0 0
0 0 0 269 103 46 265 563 547 409 175 0 0 1 11 11 10 18 33 33 17 18 37 40 36 33 38 51 2 0 9 29
0 0 0 91 268 74 55 383 509 431 157 0 2 0 0 0 0 0 5 19 42 37 83 62 42 25 21 49 30 0 0 55
0 0 0 6 221 186 37 185 409 344 38 0 8 4 3 1 0 0 0 0 0 9 37 49 10 38 52 54 31 4 0 0
0 0 0 14 216 206 95 154 409 269 1 1 10 7 21 1 0 0 0 2 8 13 4 14 35 39 34 27 46 23 9 0
0 0 0 49 215 265 155 209 397 130 1 3 12 13 10 3 0 0 4 51 9 14 36 27 7 27 26 40 51 16 35 0
1 1 6 58 319 298 334 365 423 14 0 3 27 8 11 7 0 0 0 3 10 13 7 10 18 35 45 39 43 21 36 53
4 8 17 28 86 239 254 359 278 7 0 4 10 15 6 23 8 0 2 0 16 2 5 1 18 29 25 42 30 30 22 0
0 3 0 7 18 114 105 234 201 21 0 3 9 8 6 38 13 8 5 6 4 0 3 4 1 1 9 14 29 44 5 0
0 0 0 5 0 79 74 127 106 135 0 0 2 2 4 33 21 11 5 4 4 0 0 2 1 11 2 3 1 11 21 7
0 17 4 0 0 46 62 32 86 117 66 0 1 5 7 22 47 34 56 19 10 15 0 0 1 4 2 8 11 5 12 6
2 5 50 15 0 6 6 33 60 67 99 11 0 4 5 43 55 14 0 5 21 11 8 8 2 1 3 8 3 4 3 0

GFSFLT1_con_mucape_117.txt.gz
CAPE
0 0 0 0 0 0 14 563 573 623 581 571 694 781 308 8 8 42 54 128 61 65 71 31 38 9 20 8 9 51 4 0
0 0 0 0 0 0 182 489 522 456 550 731 864 556 118 15 0 0 16 7 57 76 4 31 26 7 8 6 0 8 0 0
0 0 0 0 0 114 289 482 307 562 698 933 689 364 23 126 39 13 3 23 18 38 35 13 7 29 1 2 0 0 0 0
0 0 0 0 0 83 300 423 292 543 830 817 501 226 56 102 41 20 56 1 3 4 40 33 15 24 14 8 0 0 0 1
0 0 0 0 0 124 337 315 419 695 920 636 411 220 39 320 47 44 14 0 0 16 1 19 12 23 5 19 0 0 0 0
0 0 0 0 0 85 291 275 473 834 792 585 404 176 277 180 89 112 36 18 4 6 27 53 39 34 4 13 0 0 2 1
0 0 0 0 5 13 98 257 544 804 707 530 381 170 339 77 85 30 65 19 10 42 44 35 52 17 4 37 0 0 0 0
0 0 0 0 0 40 72 143 497 741 654 481 355 167 113 77 72 108 105 59 41 5 12 15 11 20 58 71 1 0 0 0
0 0 0 0 0 2 119 332 498 606 625 442 288 168 54 99 71 91 186 64 12 7 5 20 21 32 57 69 25 0 0 0
0 0 0 0 0 0 142 459 402 439 608 442 278 41 26 29 30 178 58 69 70 80 13 27 0 9 20 14 49 13 0 0
0 0 0 0 0 0 156 166 288 413 543 473 230 10 7 45 46 12 21 35 41 47 52 66 36 30 9 13 49 54 31 0
0 0 0 0 29 175 221 409 205 330 451 460 226 8 3 3 20 1 0 0 26 29 61 63 35 40 36 21 47 45 64 40
0 0 0 0 1 151 218 298 157 38 381 333 70 10 1 1 8 6 0 2 9 2 23 20 10 12 33 39 47 30 51 38
0 0 0 2 0 63 133 254 225 129 375 287 4 10 0 0 5 0 6 7 1 11 36 11 28 13 11 8 19 30 37 23
0 0 0 8 2 29 129 118 119 148 175 34 17 7 0 2 5 5 0 0 3 6 5 8 22 11 18 35 14 13 25 24
0 1 0 0 3 8 248 47 106 90 216 10 15 6 0 3 6 10 2 4 6 15 11 2 28 4 12 26 40 34 12 31
9 1 0 0 3 1 115 54 103 121 78 12 11 5 1 2 7 6 4 4 7 0 0 0 9 0 0 21 26 29 38 42
0 0 0 1 0 18 113 98 84 74 80 9 4 2 1 3 7 14 6 4 0 5 1 0 0 5 0 0 5 25 3 7
5 0 0 3 3 0 140 59 28 38 59 13 4 1 1 2 4 16 17 17 4 6 3 6 7 8 7 0 3 1 8 2

GFSFLT1_con_mucape_123.txt.gz
CAPE
0 0 0 0 0 0 0 0 67 351 1550 2384 2548 2332 1794 1788 1934 2206 2160 2094 1833 1546 921 625 744 205 137 60 38 57 202 228
0 0 0 0 0 11 10 27 305 48 370 1322 2261 2441 1719 1242 1793 2161 1968 1496 1613 943 801 431 337 86 230 44 33 23 174 193
0 0 0 0 0 2 279 248 280 364 383 1043 1848 1919 1074 1129 1374 1420 1454 1363 920 841 679 142 154 293 16 55 15 14 17 195
0 0 0 0 0 252 436 352 465 732 793 1187 1108 1333 919 1274 1004 780 975 664 896 740 385 126 101 39 127 45 35 16 0 94
0 0 0 0 0 241 661 630 628 841 1043 1262 989 871 903 907 940 701 822 664 565 466 597 164 92 103 97 25 33 17 11 54
0 0 0 0 0 5 294 785 772 824 858 1074 910 1122 1171 1184 1282 786 707 672 618 757 590 217 41 67 115 13 16 28 27 74
0 0 0 0 9 88 59 254 363 423 800 809 872 1258 1450 1415 1069 823 798 954 720 517 412 99 26 16 41 1 15 32 5 54
0 0 0 0 0 24 164 53 190 329 698 717 979 1204 1287 1445 837 708 979 279 96 64 44 2 0 0 4 3 10 12 20 36
0 0 0 0 0 0 36 148 129 74 314 507 799 1423 1231 1279 1000 908 888 369 57 32 3 3 0 0 3 16 3 4 11 6
0 0 0 0 0 0 0 151 197 86 202 253 709 1333 1303 1161 768 690 726 617 160 25 29 1 2 0 3 26 9 7 12 13
0 0 0 0 0 0 0 1 148 197 111 193 238 761 903 852 791 981 813 653 296 39 49 7 2 10 4 11 8 21 7 16
0 0 0 0 0 0 0 4 4 41 54 131 136 653 721 1070 685 815 784 695 343 191 18 53 10 53 39 0 4 16 14 5
0 0 0 4 3 0 1 2 3 0 17 29 143 375 564 578 676 391 549 365 370 106 28 11 31 0 0 7 1 2 13 4
0 0 0 12 18 3 2 4 0 0 0 10 111 243 448 413 460 359 129 117 143 130 84 76 21 74 6 2 3 0 22 12
0 0 4 47 47 2 0 0 0 0 0 30 208 303 379 356 430 108 156 93 66 56 32 101 112 39 1 6 6 4 0 3
0 9 122 96 39 5 0 0 0 0 0 185 341 235 242 178 262 51 132 46 20 16 14 7 12 8 7 19 5 16 20 7
27 126 63 27 14 1 0 0 0 0 0 189 484 265 86 161 81 35 54 29 7 0 5 2 16 0 1 4 11 1 4 4
118 37 19 10 0 0 0 0 0 0 5 166 141 300 78 140 74 24 81 11 0 0 3 0 0 0 0 0 6 12 11 8
22 24 10 0 0 0 0 0 0 0 7 107 114 111 81 163 43 31 8 14 0 1 0 0 0 0 0 0 0 0 0 2

GFSFLT1_con_mucape_126.txt.gz
CAPE
0 0 0 0 0 0 0 0 0 299 1673 2410 2278 2053 1785 1773 1853 2419 2105 2041 2254 1905 1474 1235 802 598 385 113 87 40 48 73
0 0 0 0 0 0 0 7 27 20 325 1193 1774 2135 1895 1680 1472 1571 2115 1670 1792 1831 1398 1084 881 520 343 197 79 20 22 45
0 0 4 0 0 0 1 281 313 381 8 11 740 1589 2400 1956 1422 1315 1566 1862 1726 1541 1527 1141 1121 824 270 171 53 56 9 18
0 12 1 0 0 344 357 507 502 514 296 89 945 1552 1663 1650 1533 1494 1204 1753 1498 1675 1228 841 670 672 447 125 156 63 15 12
24 10 0 11 20 37 356 631 881 720 927 594 1071 1173 1251 1180 1001 1252 1472 1736 1557 1417 1143 671 435 519 242 104 170 11 34 12
20 0 0 0 20 38 180 246 534 933 1054 1023 1367 1019 845 919 560 771 993 1433 1139 1116 826 442 187 107 64 208 55 49 75 28
2 11 3 28 162 219 391 193 125 267 448 470 1116 1233 648 514 701 638 986 1022 1111 890 539 508 209 90 81 76 27 63 43 44
32 32 18 20 31 66 11 28 75 288 287 375 518 841 763 799 975 882 1131 997 1083 642 513 477 221 132 88 59 112 85 13 6
56 22 21 21 13 7 10 0 48 255 178 173 426 597 826 872 1408 937 920 729 411 809 357 433 375 59 25 11 34 31 4 12
43 14 20 17 0 18 28 0 0 50 151 98 184 262 815 968 952 881 750 791 360 193 324 302 24 0 0 0 2 0 6 16
0 3 14 13 9 12 30 1 0 0 17 116 109 203 526 870 938 1095 617 885 491 287 52 30 0 11 0 1 0 1 14 19
0 0 10 16 28 16 1 0 0 0 0 109 87 87 220 861 807 892 712 661 469 325 37 25 24 31 4 0 0 0 1 31
0 0 6 6 8 1 0 0 0 0 0 0 69 79 111 715 879 921 753 661 518 267 169 31 2 35 27 68 31 0 0 9
0 0 0 0 39 30 0 0 0 0 0 0 4 58 46 151 822 677 607 787 490 405 151 24 8 12 32 2 2 1 2 5
0 0 0 150 101 15 0 0 0 0 0 0 0 48 27 243 529 595 614 603 313 261 63 11 5 25 20 26 18 18 1 2
0 0 172 41 28 18 0 0 0 0 0 0 0 17 19 122 477 332 486 443 90 71 108 81 48 60 27 17 0 0 7 9
0 133 60 28 0 0 0 0 0 0 0 0 0 9 5 202 477 277 513 304 94 58 6 13 2 5 16 0 15 59 13 17
116 45 11 0 0 0 0 0 0 0 0 0 0 0 16 25 195 322 441 350 5 31 3 0 0 9 2 2 5 0 3 13
54 7 0 0 0 0 0 0 0 0 0 0 0 0 7 29 206 116 262 286 18 82 1 2 7 1 2 0 2 4 1 1